| time (UTC) | temp C | wind direction | speed KPH | gust KPH | rain 1hr cm | rain 24hr cm | rain mn cm | humidity % | barometer mb |
| 20260906131705 | 21 | 37 | 3.2 | 8.0 | 0.00 | 0.00 | 0.00 | 91 | 1016.4 |
| 20260906131607 | 21 | 41 | 3.2 | 8.0 | 0.00 | 0.00 | 0.00 | 91 | 1016.4 |
| 20260906131506 | 21 | 38 | 3.2 | 8.0 | 0.00 | 0.00 | 0.00 | 91 | 1016.4 |
| 20260906131405 | 21 | 30 | 3.2 | 8.0 | 0.00 | 0.00 | 0.00 | 91 | 1016.4 |
| 20260906131306 | 21 | 28 | 3.2 | 8.0 | 0.00 | 0.00 | 0.00 | 91 | 1016.4 |
| 20260906131205 | 21 | 25 | 3.2 | 8.0 | 0.00 | 0.00 | 0.00 | 91 | 1016.4 |
| 20260906131106 | 21 | 20 | 3.2 | 8.0 | 0.00 | 0.00 | 0.00 | 91 | 1016.4 |
| 20260906131005 | 21 | 26 | 3.2 | 11.3 | 0.00 | 0.00 | 0.00 | 91 | 1016.4 |
| 20260906130906 | 21 | 30 | 3.2 | 11.3 | 0.00 | 0.00 | 0.00 | 91 | 1016.4 |
| 20260906130806 | 21 | 34 | 3.2 | 11.3 | 0.00 | 0.00 | 0.00 | 91 | 1016.4 |
| 20260906130705 | 21 | 42 | 3.2 | 11.3 | 0.00 | 0.00 | 0.00 | 91 | 1016.4 |
| 20260906130605 | 21 | 37 | 3.2 | 11.3 | 0.00 | 0.00 | 0.00 | 91 | 1016.4 |
| 20260906130505 | 21 | 37 | 3.2 | 11.3 | 0.00 | 0.00 | 0.00 | 91 | 1016.4 |
| 20260906130405 | 21 | 47 | 3.2 | 11.3 | 0.00 | 0.00 | 0.00 | 90 | 1016.4 |
| 20260906130305 | 21 | 49 | 3.2 | 14.5 | 0.00 | 0.00 | 0.00 | 90 | 1016.3 |
| 20260906130106 | 21 | 58 | 3.2 | 14.5 | 0.00 | 0.00 | 0.00 | 90 | 1016.3 |
| 20260906130005 | 21 | 64 | 4.8 | 14.5 | 0.00 | 0.00 | 0.00 | 90 | 1016.2 |
| 20260906125905 | 21 | 63 | 4.8 | 14.5 | 0.00 | 0.00 | 0.00 | 90 | 1016.2 |
| 20260906125805 | 21 | 63 | 4.8 | 14.5 | 0.00 | 0.00 | 0.00 | 90 | 1016.2 |
| 20260906125705 | 21 | 66 | 4.8 | 14.5 | 0.00 | 0.00 | 0.00 | 90 | 1016.2 |
| 20260906125605 | 21 | 65 | 3.2 | 14.5 | 0.00 | 0.00 | 0.00 | 90 | 1016.2 |
| 20260906125506 | 21 | 67 | 3.2 | 14.5 | 0.00 | 0.00 | 0.00 | 90 | 1016.2 |
| 20260906125406 | 21 | 66 | 3.2 | 14.5 | 0.00 | 0.00 | 0.00 | 90 | 1016.2 |
| 20260906125306 | 21 | 69 | 3.2 | 14.5 | 0.00 | 0.00 | 0.00 | 90 | 1016.3 |
| 20260906125206 | 21 | 70 | 1.6 | 14.5 | 0.00 | 0.00 | 0.00 | 90 | 1016.2 |
| 20260906125105 | 21 | 63 | 1.6 | 14.5 | 0.00 | 0.00 | 0.00 | 90 | 1016.3 |
| 20260906125005 | 21 | 56 | 1.6 | 14.5 | 0.00 | 0.00 | 0.00 | 90 | 1016.3 |
| 20260906124906 | 21 | 54 | 1.6 | 6.4 | 0.00 | 0.00 | 0.00 | 90 | 1016.3 |
| 20260906124806 | 21 | 52 | 1.6 | 6.4 | 0.00 | 0.00 | 0.00 | 90 | 1016.3 |
| 20260906124705 | 21 | 48 | 3.2 | 6.4 | 0.00 | 0.00 | 0.00 | 90 | 1016.3 |
| 20260906124605 | 21 | 50 | 3.2 | 16.1 | 0.00 | 0.00 | 0.00 | 90 | 1016.3 |
| 20260906124506 | 21 | 50 | 3.2 | 16.1 | 0.00 | 0.00 | 0.00 | 90 | 1016.3 |
| 20260906124406 | 21 | 51 | 3.2 | 16.1 | 0.00 | 0.00 | 0.00 | 90 | 1016.3 |
| 20260906124305 | 21 | 52 | 3.2 | 16.1 | 0.00 | 0.00 | 0.00 | 90 | 1016.3 |
| 20260906124205 | 21 | 51 | 3.2 | 16.1 | 0.00 | 0.00 | 0.00 | 90 | 1016.2 |
| 20260906124105 | 21 | 49 | 3.2 | 16.1 | 0.00 | 0.00 | 0.00 | 90 | 1016.1 |
| 20260906124005 | 21 | 46 | 3.2 | 16.1 | 0.00 | 0.00 | 0.00 | 90 | 1016.1 |
| 20260906123905 | 21 | 44 | 3.2 | 16.1 | 0.00 | 0.00 | 0.00 | 90 | 1016.0 |
| 20260906123805 | 21 | 42 | 3.2 | 16.1 | 0.00 | 0.00 | 0.00 | 90 | 1016.0 |
| 20260906123706 | 21 | 40 | 1.6 | 16.1 | 0.00 | 0.00 | 0.00 | 90 | 1015.9 |
| 20260906123605 | 21 | 36 | 1.6 | 8.0 | 0.00 | 0.00 | 0.00 | 90 | 1015.9 |
| 20260906123505 | 21 | 33 | 1.6 | 8.0 | 0.00 | 0.00 | 0.00 | 90 | 1015.9 |
| 20260906123405 | 21 | 23 | 1.6 | 6.4 | 0.00 | 0.00 | 0.00 | 90 | 1015.9 |
| 20260906123305 | 21 | 20 | 1.6 | 6.4 | 0.00 | 0.00 | 0.00 | 90 | 1015.9 |
| 20260906123205 | 21 | 25 | 1.6 | 6.4 | 0.00 | 0.00 | 0.00 | 90 | 1015.9 |
| 20260906123105 | 21 | 28 | 1.6 | 6.4 | 0.00 | 0.00 | 0.00 | 90 | 1015.9 |
| 20260906123005 | 21 | 30 | 1.6 | 6.4 | 0.00 | 0.00 | 0.00 | 90 | 1015.9 |
| 20260906122905 | 21 | 32 | 1.6 | 4.8 | 0.00 | 0.00 | 0.00 | 90 | 1015.9 |
| 20260906122805 | 21 | 39 | 1.6 | 4.8 | 0.00 | 0.00 | 0.00 | 90 | 1015.9 |
| 20260906122705 | 21 | 40 | 1.6 | 4.8 | 0.00 | 0.00 | 0.00 | 90 | 1015.9 |
| 20260906122606 | 21 | 40 | 1.6 | 4.8 | 0.00 | 0.00 | 0.00 | 90 | 1015.9 |
| 20260906122405 | 21 | 44 | 1.6 | 4.8 | 0.00 | 0.00 | 0.00 | 90 | 1015.9 |
| 20260906122306 | 21 | 33 | 1.6 | 9.7 | 0.00 | 0.00 | 0.00 | 90 | 1015.9 |
| 20260906122205 | 21 | 26 | 1.6 | 9.7 | 0.00 | 0.00 | 0.00 | 90 | 1015.9 |
| 20260906122106 | 21 | 19 | 1.6 | 9.7 | 0.00 | 0.00 | 0.00 | 90 | 1015.9 |
| 20260906122005 | 21 | 17 | 1.6 | 9.7 | 0.00 | 0.00 | 0.00 | 90 | 1015.9 |
| 20260906121906 | 21 | 13 | 1.6 | 9.7 | 0.00 | 0.00 | 0.00 | 90 | 1015.9 |
| 20260906121805 | 21 | 9 | 1.6 | 9.7 | 0.00 | 0.00 | 0.00 | 90 | 1015.9 |
| 20260906121706 | 21 | 8 | 1.6 | 9.7 | 0.00 | 0.00 | 0.00 | 90 | 1015.9 |
| 20260906121605 | 21 | 10 | 1.6 | 9.7 | 0.00 | 0.00 | 0.00 | 90 | 1015.9 |
| 20260906121405 | 21 | 10 | 1.6 | 9.7 | 0.00 | 0.00 | 0.00 | 90 | 1015.9 |
| 20260906121205 | 21 | 14 | 1.6 | 9.7 | 0.00 | 0.00 | 0.00 | 90 | 1015.9 |
| 20260906121106 | 21 | 16 | 3.2 | 9.7 | 0.00 | 0.00 | 0.00 | 90 | 1015.9 |
| 20260906121005 | 21 | 16 | 1.6 | 9.7 | 0.00 | 0.00 | 0.00 | 90 | 1015.9 |
| 20260906120905 | 21 | 19 | 1.6 | 8.0 | 0.00 | 0.00 | 0.00 | 90 | 1016.0 |
| 20260906120805 | 21 | 19 | 3.2 | 8.0 | 0.00 | 0.00 | 0.00 | 90 | 1015.9 |
| 20260906120705 | 21 | 19 | 3.2 | 8.0 | 0.00 | 0.00 | 0.00 | 90 | 1015.9 |
| 20260906120605 | 21 | 18 | 3.2 | 8.0 | 0.00 | 0.00 | 0.00 | 90 | 1015.9 |
| 20260906120505 | 21 | 16 | 3.2 | 8.0 | 0.00 | 0.00 | 0.00 | 90 | 1015.9 |
| 20260906120405 | 21 | 16 | 3.2 | 8.0 | 0.00 | 0.00 | 0.00 | 90 | 1015.9 |
| 20260906120305 | 21 | 16 | 3.2 | 8.0 | 0.00 | 0.00 | 0.00 | 90 | 1015.9 |
| 20260906120205 | 21 | 15 | 3.2 | 8.0 | 0.00 | 0.00 | 0.00 | 90 | 1015.8 |
| 20260906120104 | 21 | 14 | 3.2 | 8.0 | 0.00 | 0.00 | 0.00 | 90 | 1015.9 |
| 20260906120005 | 21 | 15 | 3.2 | 8.0 | 0.00 | 0.00 | 0.00 | 90 | 1015.9 |
| 20260906115905 | 21 | 13 | 1.6 | 8.0 | 0.00 | 0.00 | 0.00 | 90 | 1015.9 |
| 20260906115805 | 21 | 14 | 1.6 | 8.0 | 0.00 | 0.00 | 0.00 | 90 | 1015.9 |
| 20260906115705 | 21 | 16 | 1.6 | 8.0 | 0.00 | 0.00 | 0.00 | 90 | 1015.9 |
| 20260906115604 | 21 | 15 | 1.6 | 6.4 | 0.00 | 0.00 | 0.00 | 90 | 1015.8 |
| 20260906115504 | 21 | 19 | 1.6 | 6.4 | 0.00 | 0.00 | 0.00 | 90 | 1015.8 |
| 20260906115306 | 22 | 24 | 1.6 | 4.8 | 0.00 | 0.00 | 0.00 | 90 | 1015.8 |
| 20260906115105 | 22 | 25 | 1.6 | 3.2 | 0.00 | 0.00 | 0.00 | 89 | 1015.7 |
| 20260906115005 | 22 | 25 | 1.6 | 3.2 | 0.00 | 0.00 | 0.00 | 90 | 1015.7 |
| 20260906114905 | 22 | 24 | 1.6 | 3.2 | 0.00 | 0.00 | 0.00 | 90 | 1015.7 |
| 20260906114805 | 22 | 22 | 1.6 | 3.2 | 0.00 | 0.00 | 0.00 | 90 | 1015.7 |
| 20260906114705 | 22 | 22 | 1.6 | 3.2 | 0.00 | 0.00 | 0.00 | 90 | 1015.7 |
| 20260906114604 | 21 | 23 | 1.6 | 3.2 | 0.00 | 0.00 | 0.00 | 90 | 1015.7 |
| 20260906114505 | 21 | 22 | 1.6 | 3.2 | 0.00 | 0.00 | 0.00 | 90 | 1015.7 |
| 20260906114405 | 21 | 22 | 1.6 | 3.2 | 0.00 | 0.00 | 0.00 | 90 | 1015.6 |
| 20260906114305 | 21 | 21 | 1.6 | 3.2 | 0.00 | 0.00 | 0.00 | 89 | 1015.6 |
| 20260906114105 | 21 | 21 | 1.6 | 3.2 | 0.00 | 0.00 | 0.00 | 89 | 1015.4 |
| 20260906114005 | 21 | 21 | 1.6 | 3.2 | 0.00 | 0.00 | 0.00 | 89 | 1015.5 |
| 20260906113905 | 22 | 27 | 1.6 | 3.2 | 0.00 | 0.00 | 0.00 | 90 | 1015.3 |
| 20260906113705 | 22 | 28 | 1.6 | 3.2 | 0.00 | 0.00 | 0.00 | 89 | 1015.4 |
| 20260906113604 | 22 | 31 | 1.6 | 3.2 | 0.00 | 0.00 | 0.00 | 89 | 1015.4 |
| 20260906113304 | 22 | 36 | 0.0 | 3.2 | 0.00 | 0.00 | 0.00 | 89 | 1015.3 |
| 20260906113204 | 22 | 39 | 0.0 | 3.2 | 0.00 | 0.00 | 0.00 | 89 | 1015.3 |
| 20260906113106 | 22 | 39 | 0.0 | 3.2 | 0.00 | 0.00 | 0.00 | 89 | 1015.3 |
| 20260906113006 | 22 | 40 | 0.0 | 3.2 | 0.00 | 0.00 | 0.00 | 89 | 1015.3 |
| 20260906112904 | 22 | 39 | 0.0 | 3.2 | 0.00 | 0.00 | 0.00 | 89 | 1015.3 |
| 20260906112805 | 22 | 31 | 0.0 | 3.2 | 0.00 | 0.00 | 0.00 | 89 | 1015.3 |
| 20260906112404 | 22 | 26 | 0.0 | 4.8 | 0.00 | 0.00 | 0.00 | 89 | 1015.3 |
| 20260906112306 | 22 | 26 | 0.0 | 4.8 | 0.00 | 0.00 | 0.00 | 89 | 1015.3 |
| 20260906112205 | 22 | 24 | 0.0 | 4.8 | 0.00 | 0.00 | 0.00 | 89 | 1015.3 |
| 20260906112105 | 22 | 24 | 0.0 | 4.8 | 0.00 | 0.00 | 0.00 | 89 | 1015.3 |
| 20260906112004 | 22 | 24 | 0.0 | 4.8 | 0.00 | 0.00 | 0.00 | 89 | 1015.3 |
| 20260906111904 | 22 | 20 | 1.6 | 4.8 | 0.00 | 0.00 | 0.00 | 89 | 1015.3 |
| 20260906111804 | 22 | 18 | 1.6 | 4.8 | 0.00 | 0.00 | 0.00 | 89 | 1015.3 |
| 20260906111705 | 22 | 18 | 0.0 | 4.8 | 0.00 | 0.00 | 0.00 | 89 | 1015.3 |
| 20260906111606 | 22 | 18 | 0.0 | 4.8 | 0.00 | 0.00 | 0.00 | 89 | 1015.4 |
| 20260906111505 | 22 | 13 | 0.0 | 3.2 | 0.00 | 0.00 | 0.00 | 89 | 1015.4 |
| 20260906111405 | 22 | 12 | 0.0 | 3.2 | 0.00 | 0.00 | 0.00 | 88 | 1015.4 |
| 20260906111204 | 22 | 16 | 1.6 | 3.2 | 0.00 | 0.00 | 0.00 | 88 | 1015.4 |
| 20260906111104 | 22 | 17 | 1.6 | 3.2 | 0.00 | 0.00 | 0.00 | 88 | 1015.4 |
| 20260906111004 | 22 | 16 | 0.0 | 3.2 | 0.00 | 0.00 | 0.00 | 88 | 1015.3 |
| 20260906110905 | 22 | 20 | 0.0 | 3.2 | 0.00 | 0.00 | 0.00 | 88 | 1015.3 |
| 20260906110805 | 22 | 24 | 0.0 | 3.2 | 0.00 | 0.00 | 0.00 | 88 | 1015.3 |
| 20260906110704 | 22 | 21 | 0.0 | 3.2 | 0.00 | 0.00 | 0.00 | 88 | 1015.3 |
| 20260906110604 | 22 | 21 | 0.0 | 3.2 | 0.00 | 0.00 | 0.00 | 88 | 1015.3 |
| 20260906110504 | 22 | 22 | 0.0 | 3.2 | 0.00 | 0.00 | 0.00 | 88 | 1015.3 |
| 20260906110405 | 22 | 22 | 0.0 | 3.2 | 0.00 | 0.00 | 0.00 | 88 | 1015.3 |
| 20260906110306 | 22 | 17 | 0.0 | 3.2 | 0.00 | 0.00 | 0.00 | 88 | 1015.3 |
| 20260906110205 | 22 | 18 | 0.0 | 3.2 | 0.00 | 0.00 | 0.00 | 88 | 1015.2 |
| 20260906105905 | 22 | 26 | 0.0 | 3.2 | 0.00 | 0.00 | 0.00 | 88 | 1015.2 |
| 20260906105805 | 22 | 33 | 0.0 | 3.2 | 0.00 | 0.00 | 0.00 | 88 | 1015.2 |
| 20260906105705 | 22 | 43 | 0.0 | 3.2 | 0.00 | 0.00 | 0.00 | 88 | 1015.1 |
| 20260906105605 | 22 | 45 | 0.0 | 3.2 | 0.00 | 0.00 | 0.00 | 88 | 1015.1 |
| 20260906105504 | 22 | 45 | 0.0 | 3.2 | 0.00 | 0.00 | 0.00 | 88 | 1015.2 |
| 20260906105407 | 22 | 48 | 0.0 | 3.2 | 0.00 | 0.00 | 0.00 | 88 | 1015.2 |
| 20260906105306 | 22 | 57 | 0.0 | 3.2 | 0.00 | 0.00 | 0.00 | 88 | 1015.2 |
| 20260906105105 | 22 | 56 | 0.0 | 3.2 | 0.00 | 0.00 | 0.00 | 88 | 1015.2 |
| 20260906105004 | 22 | 53 | 0.0 | 3.2 | 0.00 | 0.00 | 0.00 | 87 | 1015.2 |
| 20260906104904 | 22 | 49 | 0.0 | 3.2 | 0.00 | 0.00 | 0.00 | 87 | 1015.2 |
| 20260906104704 | 22 | 50 | 0.0 | 3.2 | 0.00 | 0.00 | 0.00 | 87 | 1015.0 |
| 20260906104604 | 22 | 47 | 0.0 | 3.2 | 0.00 | 0.00 | 0.00 | 87 | 1015.0 |
| 20260906104505 | 22 | 51 | 0.0 | 3.2 | 0.00 | 0.00 | 0.00 | 87 | 1015.1 |
| 20260906104404 | 22 | 53 | 0.0 | 3.2 | 0.00 | 0.00 | 0.00 | 87 | 1015.0 |
| 20260906104304 | 22 | 48 | 0.0 | 3.2 | 0.00 | 0.00 | 0.00 | 87 | 1015.0 |
| 20260906104205 | 22 | 49 | 0.0 | 3.2 | 0.00 | 0.00 | 0.00 | 87 | 1015.1 |
| 20260906104105 | 22 | 59 | 0.0 | 3.2 | 0.00 | 0.00 | 0.00 | 87 | 1015.0 |
| 20260906103904 | 22 | 48 | 0.0 | 3.2 | 0.00 | 0.00 | 0.00 | 87 | 1015.1 |
| 20260906103805 | 22 | 37 | 0.0 | 3.2 | 0.00 | 0.00 | 0.00 | 87 | 1015.1 |
| 20260906103704 | 22 | 36 | 1.6 | 3.2 | 0.00 | 0.00 | 0.00 | 87 | 1015.1 |
| 20260906103605 | 22 | 32 | 1.6 | 4.8 | 0.00 | 0.00 | 0.00 | 87 | 1015.2 |
| 20260906103505 | 22 | 26 | 1.6 | 4.8 | 0.00 | 0.00 | 0.00 | 87 | 1015.2 |
| 20260906103304 | 22 | 25 | 1.6 | 4.8 | 0.00 | 0.00 | 0.00 | 87 | 1015.2 |
| 20260906103204 | 22 | 29 | 1.6 | 4.8 | 0.00 | 0.00 | 0.00 | 87 | 1015.2 |
| 20260906103104 | 22 | 28 | 1.6 | 4.8 | 0.00 | 0.00 | 0.00 | 87 | 1015.2 |
| 20260906103005 | 22 | 32 | 1.6 | 4.8 | 0.00 | 0.00 | 0.00 | 87 | 1015.2 |
| 20260906102904 | 22 | 29 | 1.6 | 4.8 | 0.00 | 0.00 | 0.00 | 87 | 1015.2 |
| 20260906102704 | 22 | 29 | 0.0 | 4.8 | 0.00 | 0.00 | 0.00 | 87 | 1015.2 |
| 20260906102604 | 22 | 31 | 0.0 | 4.8 | 0.00 | 0.00 | 0.00 | 87 | 1015.2 |
| 20260906102404 | 22 | 32 | 0.0 | 4.8 | 0.00 | 0.00 | 0.00 | 86 | 1015.1 |
| 20260906102204 | 22 | 24 | 0.0 | 3.2 | 0.00 | 0.00 | 0.00 | 86 | 1015.1 |
| 20260906102105 | 23 | 26 | 0.0 | 3.2 | 0.00 | 0.00 | 0.00 | 86 | 1015.0 |
| 20260906101904 | 22 | 31 | 0.0 | 3.2 | 0.00 | 0.00 | 0.00 | 86 | 1015.0 |
| 20260906101805 | 23 | 32 | 1.6 | 3.2 | 0.00 | 0.00 | 0.00 | 86 | 1015.1 |
| 20260906101704 | 23 | 38 | 1.6 | 3.2 | 0.00 | 0.00 | 0.00 | 86 | 1015.1 |
| 20260906101604 | 23 | 40 | 1.6 | 3.2 | 0.00 | 0.00 | 0.00 | 86 | 1015.0 |
| 20260906101504 | 23 | 41 | 1.6 | 3.2 | 0.00 | 0.00 | 0.00 | 86 | 1015.0 |
| 20260906101404 | 23 | 40 | 1.6 | 3.2 | 0.00 | 0.00 | 0.00 | 86 | 1015.1 |
| 20260906101304 | 23 | 37 | 1.6 | 6.4 | 0.00 | 0.00 | 0.00 | 86 | 1015.0 |
| 20260906101205 | 23 | 41 | 1.6 | 6.4 | 0.00 | 0.00 | 0.00 | 86 | 1015.0 |
| 20260906101104 | 23 | 44 | 1.6 | 6.4 | 0.00 | 0.00 | 0.00 | 86 | 1015.0 |
| 20260906101005 | 23 | 50 | 1.6 | 6.4 | 0.00 | 0.00 | 0.00 | 86 | 1015.0 |
| 20260906100904 | 23 | 52 | 1.6 | 6.4 | 0.00 | 0.00 | 0.00 | 86 | 1014.9 |
| 20260906100804 | 23 | 54 | 1.6 | 6.4 | 0.00 | 0.00 | 0.00 | 86 | 1015.0 |
| 20260906100704 | 23 | 54 | 1.6 | 6.4 | 0.00 | 0.00 | 0.00 | 86 | 1014.9 |
| 20260906100604 | 23 | 53 | 1.6 | 6.4 | 0.00 | 0.00 | 0.00 | 86 | 1014.9 |
| 20260906100504 | 23 | 55 | 1.6 | 6.4 | 0.00 | 0.00 | 0.00 | 86 | 1014.9 |
| 20260906100405 | 23 | 58 | 1.6 | 6.4 | 0.00 | 0.00 | 0.00 | 86 | 1014.9 |
| 20260906100304 | 23 | 61 | 1.6 | 6.4 | 0.00 | 0.00 | 0.00 | 86 | 1014.9 |
| 20260906100205 | 23 | 63 | 1.6 | 4.8 | 0.00 | 0.00 | 0.00 | 86 | 1014.7 |
| 20260906100104 | 23 | 56 | 1.6 | 4.8 | 0.00 | 0.00 | 0.00 | 86 | 1014.8 |
| 20260906100004 | 23 | 56 | 1.6 | 4.8 | 0.00 | 0.00 | 0.00 | 86 | 1014.8 |
| 20260906095904 | 23 | 59 | 1.6 | 4.8 | 0.00 | 0.00 | 0.00 | 86 | 1014.8 |
| 20260906095805 | 23 | 58 | 1.6 | 4.8 | 0.00 | 0.00 | 0.00 | 86 | 1014.8 |
| 20260906095604 | 23 | 63 | 1.6 | 4.8 | 0.00 | 0.00 | 0.00 | 85 | 1014.8 |
| 20260906095504 | 23 | 64 | 1.6 | 4.8 | 0.00 | 0.00 | 0.00 | 85 | 1014.8 |
| 20260906095404 | 23 | 60 | 1.6 | 4.8 | 0.00 | 0.00 | 0.00 | 85 | 1014.8 |
| 20260906095204 | 23 | 62 | 1.6 | 8.0 | 0.00 | 0.00 | 0.00 | 85 | 1014.8 |
| 20260906095104 | 23 | 64 | 1.6 | 8.0 | 0.00 | 0.00 | 0.00 | 85 | 1014.8 |
| 20260906094904 | 23 | 59 | 1.6 | 8.0 | 0.00 | 0.00 | 0.00 | 85 | 1014.8 |
| 20260906094804 | 23 | 57 | 1.6 | 8.0 | 0.00 | 0.00 | 0.00 | 85 | 1014.8 |
| 20260906094704 | 23 | 49 | 1.6 | 8.0 | 0.00 | 0.00 | 0.00 | 85 | 1014.8 |
| 20260906094404 | 23 | 53 | 1.6 | 8.0 | 0.00 | 0.00 | 0.00 | 85 | 1014.8 |
| 20260906094305 | 23 | 50 | 1.6 | 6.4 | 0.00 | 0.00 | 0.00 | 85 | 1014.8 |
| 20260906094204 | 23 | 48 | 1.6 | 6.4 | 0.00 | 0.00 | 0.00 | 85 | 1014.7 |
| 20260906094104 | 23 | 47 | 1.6 | 6.4 | 0.00 | 0.00 | 0.00 | 85 | 1014.8 |
| 20260906094004 | 23 | 48 | 1.6 | 6.4 | 0.00 | 0.00 | 0.00 | 85 | 1014.8 |
| 20260906093904 | 23 | 51 | 1.6 | 6.4 | 0.00 | 0.00 | 0.00 | 85 | 1014.8 |
| 20260906093804 | 23 | 53 | 1.6 | 6.4 | 0.00 | 0.00 | 0.00 | 85 | 1014.8 |
| 20260906093604 | 23 | 49 | 1.6 | 4.8 | 0.00 | 0.00 | 0.00 | 85 | 1014.8 |
| 20260906093504 | 23 | 49 | 1.6 | 4.8 | 0.00 | 0.00 | 0.00 | 85 | 1014.7 |
| 20260906093303 | 23 | 54 | 3.2 | 6.4 | 0.00 | 0.00 | 0.00 | 85 | 1014.7 |
| 20260906093203 | 23 | 54 | 3.2 | 6.4 | 0.00 | 0.00 | 0.00 | 85 | 1014.7 |
| 20260906093104 | 23 | 55 | 3.2 | 9.7 | 0.00 | 0.00 | 0.00 | 85 | 1014.6 |
| 20260906092704 | 23 | 49 | 3.2 | 9.7 | 0.00 | 0.00 | 0.00 | 85 | 1014.5 |
| 20260906092603 | 23 | 47 | 3.2 | 9.7 | 0.00 | 0.00 | 0.00 | 85 | 1014.5 |
| 20260906092503 | 23 | 46 | 3.2 | 9.7 | 0.00 | 0.00 | 0.00 | 85 | 1014.5 |
| 20260906092404 | 23 | 46 | 3.2 | 9.7 | 0.00 | 0.00 | 0.00 | 85 | 1014.5 |
| 20260906092204 | 23 | 43 | 1.6 | 9.7 | 0.00 | 0.00 | 0.00 | 85 | 1014.6 |
| 20260906092104 | 23 | 38 | 1.6 | 6.4 | 0.00 | 0.00 | 0.00 | 85 | 1014.6 |
| 20260906092004 | 23 | 37 | 1.6 | 6.4 | 0.00 | 0.00 | 0.00 | 85 | 1014.6 |
| 20260906091903 | 23 | 41 | 1.6 | 6.4 | 0.00 | 0.00 | 0.00 | 85 | 1014.6 |
| 20260906091804 | 23 | 36 | 1.6 | 4.8 | 0.00 | 0.00 | 0.00 | 85 | 1014.6 |
| 20260906091704 | 23 | 34 | 1.6 | 4.8 | 0.00 | 0.00 | 0.00 | 85 | 1014.6 |
| 20260906091604 | 23 | 30 | 1.6 | 4.8 | 0.00 | 0.00 | 0.00 | 85 | 1014.7 |
| 20260906091504 | 23 | 27 | 1.6 | 4.8 | 0.00 | 0.00 | 0.00 | 85 | 1014.7 |
| 20260906091404 | 23 | 22 | 1.6 | 3.2 | 0.00 | 0.00 | 0.00 | 85 | 1014.7 |
| 20260906091303 | 23 | 18 | 1.6 | 3.2 | 0.00 | 0.00 | 0.00 | 85 | 1014.7 |
| 20260906091203 | 23 | 18 | 1.6 | 3.2 | 0.00 | 0.00 | 0.00 | 85 | 1014.8 |
| 20260906091104 | 23 | 21 | 1.6 | 3.2 | 0.00 | 0.00 | 0.00 | 85 | 1014.8 |
| 20260906091004 | 23 | 17 | 1.6 | 3.2 | 0.00 | 0.00 | 0.00 | 85 | 1014.8 |
| 20260906090904 | 23 | 28 | 1.6 | 6.4 | 0.00 | 0.00 | 0.00 | 85 | 1014.7 |
| 20260906090703 | 24 | 35 | 1.6 | 6.4 | 0.00 | 0.00 | 0.00 | 85 | 1014.8 |
| 20260906090603 | 24 | 41 | 1.6 | 6.4 | 0.00 | 0.00 | 0.00 | 85 | 1014.7 |
| 20260906090503 | 24 | 33 | 1.6 | 6.4 | 0.00 | 0.00 | 0.00 | 85 | 1014.7 |
| 20260906090303 | 24 | 32 | 1.6 | 6.4 | 0.00 | 0.00 | 0.00 | 85 | 1014.6 |
| 20260906090204 | 24 | 33 | 1.6 | 6.4 | 0.00 | 0.00 | 0.00 | 85 | 1014.6 |
| 20260906090104 | 24 | 34 | 1.6 | 6.4 | 0.00 | 0.00 | 0.00 | 85 | 1014.6 |
| 20260906090004 | 24 | 39 | 1.6 | 6.4 | 0.00 | 0.00 | 0.00 | 85 | 1014.5 |
| 20260906085804 | 24 | 33 | 1.6 | 4.8 | 0.00 | 0.00 | 0.00 | 85 | 1014.5 |
| 20260906085703 | 24 | 27 | 1.6 | 4.8 | 0.00 | 0.00 | 0.00 | 85 | 1014.4 |
| 20260906085604 | 24 | 29 | 1.6 | 4.8 | 0.00 | 0.00 | 0.00 | 85 | 1014.4 |
| 20260906085505 | 24 | 41 | 1.6 | 4.8 | 0.00 | 0.00 | 0.00 | 84 | 1014.4 |
| 20260906085404 | 24 | 46 | 1.6 | 4.8 | 0.00 | 0.00 | 0.00 | 84 | 1014.4 |
| 20260906085306 | 24 | 50 | 1.6 | 4.8 | 0.00 | 0.00 | 0.00 | 84 | 1014.4 |
| 20260906085204 | 24 | 54 | 1.6 | 6.4 | 0.00 | 0.00 | 0.00 | 84 | 1014.4 |
| 20260906085103 | 24 | 53 | 1.6 | 6.4 | 0.00 | 0.00 | 0.00 | 84 | 1014.4 |
| 20260906085003 | 24 | 45 | 1.6 | 6.4 | 0.00 | 0.00 | 0.00 | 84 | 1014.4 |
| 20260906084904 | 24 | 46 | 1.6 | 6.4 | 0.00 | 0.00 | 0.00 | 84 | 1014.4 |
| 20260906084703 | 24 | 50 | 1.6 | 6.4 | 0.00 | 0.00 | 0.00 | 84 | 1014.4 |
| 20260906084504 | 24 | 52 | 1.6 | 6.4 | 0.00 | 0.00 | 0.00 | 83 | 1014.4 |
| 20260906084104 | 25 | 50 | 1.6 | 6.4 | 0.00 | 0.00 | 0.00 | 83 | 1014.4 |
| 20260906084004 | 25 | 56 | 1.6 | 6.4 | 0.00 | 0.00 | 0.00 | 83 | 1014.4 |
| 20260906083803 | 25 | 61 | 3.2 | 6.4 | 0.00 | 0.00 | 0.00 | 82 | 1014.3 |
| 20260906083703 | 25 | 59 | 3.2 | 6.4 | 0.00 | 0.00 | 0.00 | 82 | 1014.3 |
| 20260906083603 | 25 | 56 | 3.2 | 6.4 | 0.00 | 0.00 | 0.00 | 82 | 1014.3 |
| 20260906083503 | 25 | 55 | 3.2 | 6.4 | 0.00 | 0.00 | 0.00 | 82 | 1014.3 |
| 20260906083403 | 25 | 54 | 3.2 | 6.4 | 0.00 | 0.00 | 0.00 | 82 | 1014.3 |
| 20260906083304 | 25 | 50 | 1.6 | 6.4 | 0.00 | 0.00 | 0.00 | 82 | 1014.3 |
| 20260906083104 | 25 | 46 | 3.2 | 6.4 | 0.00 | 0.00 | 0.00 | 82 | 1014.3 |
| 20260906082903 | 25 | 38 | 1.6 | 6.4 | 0.00 | 0.00 | 0.00 | 82 | 1014.3 |
| 20260906082803 | 25 | 37 | 1.6 | 6.4 | 0.00 | 0.00 | 0.00 | 82 | 1014.3 |
| 20260906082603 | 25 | 37 | 1.6 | 6.4 | 0.00 | 0.00 | 0.00 | 82 | 1014.3 |
| 20260906082504 | 25 | 36 | 1.6 | 6.4 | 0.00 | 0.00 | 0.00 | 81 | 1014.3 |
| 20260906082404 | 25 | 38 | 1.6 | 6.4 | 0.00 | 0.00 | 0.00 | 81 | 1014.3 |
| 20260906082306 | 25 | 43 | 1.6 | 6.4 | 0.00 | 0.00 | 0.00 | 81 | 1014.4 |
| 20260906082103 | 25 | 55 | 1.6 | 6.4 | 0.00 | 0.00 | 0.00 | 81 | 1014.4 |
| 20260906082003 | 25 | 59 | 1.6 | 6.4 | 0.00 | 0.00 | 0.00 | 81 | 1014.4 |
| 20260906081803 | 25 | 57 | 3.2 | 8.0 | 0.00 | 0.00 | 0.00 | 81 | 1014.3 |
| 20260906081705 | 25 | 58 | 3.2 | 8.0 | 0.00 | 0.00 | 0.00 | 81 | 1014.3 |
| 20260906081603 | 25 | 59 | 3.2 | 8.0 | 0.00 | 0.00 | 0.00 | 81 | 1014.3 |
| 20260906081503 | 25 | 60 | 3.2 | 8.0 | 0.00 | 0.00 | 0.00 | 80 | 1014.3 |
| 20260906081203 | 25 | 58 | 3.2 | 8.0 | 0.00 | 0.00 | 0.00 | 80 | 1014.3 |
| 20260906081004 | 25 | 59 | 3.2 | 8.0 | 0.00 | 0.00 | 0.00 | 80 | 1014.4 |
| 20260906080804 | 25 | 61 | 3.2 | 8.0 | 0.00 | 0.00 | 0.00 | 80 | 1014.4 |
| 20260906080703 | 25 | 59 | 3.2 | 8.0 | 0.00 | 0.00 | 0.00 | 80 | 1014.4 |
| 20260906080603 | 25 | 58 | 3.2 | 8.0 | 0.00 | 0.00 | 0.00 | 80 | 1014.4 |
| 20260906080403 | 25 | 58 | 3.2 | 8.0 | 0.00 | 0.00 | 0.00 | 80 | 1014.4 |
| 20260906080303 | 25 | 58 | 3.2 | 8.0 | 0.00 | 0.00 | 0.00 | 80 | 1014.3 |
| 20260906080103 | 25 | 57 | 3.2 | 8.0 | 0.00 | 0.00 | 0.00 | 80 | 1014.3 |
| 20260906075803 | 25 | 55 | 3.2 | 8.0 | 0.00 | 0.00 | 0.00 | 80 | 1014.3 |
| 20260906075703 | 25 | 56 | 3.2 | 8.0 | 0.00 | 0.00 | 0.00 | 80 | 1014.3 |
| 20260906075604 | 25 | 56 | 3.2 | 8.0 | 0.00 | 0.00 | 0.00 | 80 | 1014.3 |
| 20260906075503 | 25 | 56 | 3.2 | 8.0 | 0.00 | 0.00 | 0.00 | 80 | 1014.3 |
| 20260906075403 | 25 | 56 | 3.2 | 8.0 | 0.00 | 0.00 | 0.00 | 80 | 1014.3 |
| 20260906075306 | 25 | 58 | 3.2 | 8.0 | 0.00 | 0.00 | 0.00 | 80 | 1014.3 |
| 20260906075203 | 25 | 62 | 3.2 | 6.4 | 0.00 | 0.00 | 0.00 | 80 | 1014.3 |
| 20260906075103 | 25 | 60 | 3.2 | 6.4 | 0.00 | 0.00 | 0.00 | 80 | 1014.3 |
| 20260906075003 | 25 | 58 | 3.2 | 8.0 | 0.00 | 0.00 | 0.00 | 80 | 1014.3 |
| 20260906074903 | 25 | 57 | 3.2 | 11.3 | 0.00 | 0.00 | 0.00 | 80 | 1014.3 |
| 20260906074803 | 25 | 57 | 3.2 | 11.3 | 0.00 | 0.00 | 0.00 | 80 | 1014.3 |
| 20260906074703 | 25 | 57 | 3.2 | 11.3 | 0.00 | 0.00 | 0.00 | 80 | 1014.3 |
| 20260906074604 | 25 | 59 | 3.2 | 11.3 | 0.00 | 0.00 | 0.00 | 80 | 1014.3 |
| 20260906074503 | 25 | 59 | 3.2 | 11.3 | 0.00 | 0.00 | 0.00 | 80 | 1014.3 |
| 20260906074403 | 25 | 55 | 3.2 | 11.3 | 0.00 | 0.00 | 0.00 | 81 | 1014.3 |
| 20260906074304 | 25 | 52 | 3.2 | 11.3 | 0.00 | 0.00 | 0.00 | 81 | 1014.3 |
| 20260906074203 | 25 | 51 | 3.2 | 11.3 | 0.00 | 0.00 | 0.00 | 81 | 1014.3 |
| 20260906074103 | 25 | 51 | 3.2 | 11.3 | 0.00 | 0.00 | 0.00 | 81 | 1014.3 |
| 20260906074003 | 25 | 56 | 3.2 | 11.3 | 0.00 | 0.00 | 0.00 | 81 | 1014.3 |
| 20260906073803 | 25 | 58 | 1.6 | 8.0 | 0.00 | 0.00 | 0.00 | 82 | 1014.3 |
| 20260906073703 | 25 | 59 | 1.6 | 8.0 | 0.00 | 0.00 | 0.00 | 82 | 1014.3 |
| 20260906073603 | 25 | 55 | 1.6 | 8.0 | 0.00 | 0.00 | 0.00 | 82 | 1014.3 |
| 20260906073504 | 25 | 54 | 1.6 | 8.0 | 0.00 | 0.00 | 0.00 | 82 | 1014.3 |
| 20260906073403 | 26 | 61 | 1.6 | 4.8 | 0.00 | 0.00 | 0.00 | 82 | 1014.3 |
| 20260906073303 | 26 | 65 | 1.6 | 8.0 | 0.00 | 0.00 | 0.00 | 82 | 1014.3 |
| 20260906073102 | 26 | 62 | 1.6 | 8.0 | 0.00 | 0.00 | 0.00 | 82 | 1014.3 |
| 20260906073003 | 26 | 60 | 1.6 | 8.0 | 0.00 | 0.00 | 0.00 | 82 | 1014.3 |
| 20260906072904 | 26 | 56 | 1.6 | 8.0 | 0.00 | 0.00 | 0.00 | 82 | 1014.3 |
| 20260906072704 | 26 | 55 | 1.6 | 8.0 | 0.00 | 0.00 | 0.00 | 82 | 1014.3 |
| 20260906072603 | 26 | 55 | 1.6 | 8.0 | 0.00 | 0.00 | 0.00 | 82 | 1014.3 |
| 20260906072503 | 26 | 57 | 1.6 | 8.0 | 0.00 | 0.00 | 0.00 | 82 | 1014.3 |
| 20260906072404 | 26 | 56 | 1.6 | 8.0 | 0.00 | 0.00 | 0.00 | 82 | 1014.3 |
| 20260906072306 | 26 | 54 | 1.6 | 6.4 | 0.00 | 0.00 | 0.00 | 82 | 1014.3 |
| 20260906072203 | 26 | 61 | 1.6 | 6.4 | 0.00 | 0.00 | 0.00 | 82 | 1014.3 |
| 20260906072103 | 26 | 61 | 1.6 | 6.4 | 0.00 | 0.00 | 0.00 | 82 | 1014.3 |
| 20260906072003 | 26 | 59 | 1.6 | 6.4 | 0.00 | 0.00 | 0.00 | 82 | 1014.3 |
| 20260906071903 | 26 | 63 | 1.6 | 6.4 | 0.00 | 0.00 | 0.00 | 82 | 1014.3 |
| 20260906071803 | 26 | 63 | 1.6 | 6.4 | 0.00 | 0.00 | 0.00 | 82 | 1014.2 |
| 20260906071603 | 26 | 62 | 1.6 | 6.4 | 0.00 | 0.00 | 0.00 | 83 | 1014.2 |
| 20260906071503 | 26 | 62 | 1.6 | 6.4 | 0.00 | 0.00 | 0.00 | 83 | 1014.2 |
| 20260906071304 | 26 | 69 | 1.6 | 6.4 | 0.00 | 0.00 | 0.00 | 83 | 1014.2 |
| 20260906071204 | 26 | 63 | 1.6 | 6.4 | 0.00 | 0.00 | 0.00 | 84 | 1014.2 |
| 20260906071103 | 26 | 60 | 1.6 | 6.4 | 0.00 | 0.00 | 0.00 | 84 | 1014.2 |
| 20260906070905 | 26 | 64 | 1.6 | 6.4 | 0.00 | 0.00 | 0.00 | 84 | 1014.2 |
| 20260906070703 | 26 | 63 | 1.6 | 3.2 | 0.00 | 0.00 | 0.00 | 84 | 1014.2 |
| 20260906070603 | 26 | 60 | 1.6 | 3.2 | 0.00 | 0.00 | 0.00 | 85 | 1014.2 |
| 20260906070504 | 26 | 60 | 1.6 | 3.2 | 0.00 | 0.00 | 0.00 | 84 | 1014.2 |
| 20260906070403 | 26 | 59 | 1.6 | 3.2 | 0.00 | 0.00 | 0.00 | 84 | 1014.2 |
| 20260906070302 | 26 | 57 | 1.6 | 3.2 | 0.00 | 0.00 | 0.00 | 84 | 1014.2 |
| 20260906070203 | 26 | 54 | 1.6 | 3.2 | 0.00 | 0.00 | 0.00 | 84 | 1014.3 |
| 20260906070003 | 26 | 55 | 1.6 | 4.8 | 0.00 | 0.00 | 0.00 | 84 | 1014.3 |
| 20260906065904 | 26 | 55 | 1.6 | 4.8 | 0.00 | 0.00 | 0.00 | 84 | 1014.3 |
| 20260906065704 | 26 | 57 | 1.6 | 4.8 | 0.00 | 0.00 | 0.00 | 84 | 1014.3 |
| 20260906065603 | 26 | 59 | 1.6 | 4.8 | 0.00 | 0.00 | 0.00 | 84 | 1014.3 |
| 20260906065503 | 26 | 68 | 1.6 | 4.8 | 0.00 | 0.00 | 0.00 | 84 | 1014.2 |
| 20260906065403 | 26 | 73 | 1.6 | 4.8 | 0.00 | 0.00 | 0.00 | 84 | 1014.2 |
| 20260906065305 | 26 | 77 | 1.6 | 4.8 | 0.00 | 0.00 | 0.00 | 83 | 1014.2 |
| 20260906065202 | 26 | 80 | 1.6 | 4.8 | 0.00 | 0.00 | 0.00 | 83 | 1014.2 |
| 20260906065103 | 26 | 78 | 1.6 | 4.8 | 0.00 | 0.00 | 0.00 | 83 | 1014.2 |
| 20260906065004 | 26 | 80 | 1.6 | 3.2 | 0.00 | 0.00 | 0.00 | 83 | 1014.2 |
| 20260906064903 | 26 | 75 | 1.6 | 3.2 | 0.00 | 0.00 | 0.00 | 83 | 1014.2 |
| 20260906064803 | 26 | 87 | 1.6 | 3.2 | 0.00 | 0.00 | 0.00 | 83 | 1014.2 |
| 20260906064702 | 26 | 97 | 1.6 | 3.2 | 0.00 | 0.00 | 0.00 | 83 | 1014.2 |
| 20260906064602 | 26 | 99 | 1.6 | 3.2 | 0.00 | 0.00 | 0.00 | 83 | 1014.2 |
| 20260906064504 | 26 | 99 | 1.6 | 3.2 | 0.00 | 0.00 | 0.00 | 83 | 1014.2 |
| 20260906064303 | 26 | 102 | 1.6 | 3.2 | 0.00 | 0.00 | 0.00 | 83 | 1014.3 |
| 20260906064203 | 26 | 103 | 1.6 | 3.2 | 0.00 | 0.00 | 0.00 | 83 | 1014.3 |
| 20260906064102 | 26 | 108 | 1.6 | 3.2 | 0.00 | 0.00 | 0.00 | 83 | 1014.3 |
| 20260906064002 | 26 | 108 | 1.6 | 3.2 | 0.00 | 0.00 | 0.00 | 82 | 1014.3 |
| 20260906063903 | 26 | 109 | 1.6 | 3.2 | 0.00 | 0.00 | 0.00 | 82 | 1014.2 |
| 20260906063703 | 26 | 96 | 1.6 | 3.2 | 0.00 | 0.00 | 0.00 | 82 | 1014.2 |
| 20260906063502 | 26 | 101 | 1.6 | 3.2 | 0.00 | 0.00 | 0.00 | 82 | 1014.2 |
| 20260906063402 | 26 | 102 | 1.6 | 3.2 | 0.00 | 0.00 | 0.00 | 82 | 1014.2 |
| 20260906063203 | 26 | 92 | 1.6 | 6.4 | 0.00 | 0.00 | 0.00 | 82 | 1014.3 |
| 20260906063103 | 26 | 90 | 1.6 | 6.4 | 0.00 | 0.00 | 0.00 | 82 | 1014.3 |
| 20260906062902 | 26 | 95 | 1.6 | 6.4 | 0.00 | 0.00 | 0.00 | 82 | 1014.3 |
| 20260906062802 | 26 | 99 | 1.6 | 6.4 | 0.00 | 0.00 | 0.00 | 82 | 1014.3 |
| 20260906062702 | 26 | 108 | 1.6 | 6.4 | 0.00 | 0.00 | 0.00 | 82 | 1014.3 |
| 20260906062602 | 26 | 96 | 1.6 | 6.4 | 0.00 | 0.00 | 0.00 | 82 | 1014.3 |
| 20260906062404 | 27 | 91 | 1.6 | 6.4 | 0.00 | 0.00 | 0.00 | 82 | 1014.3 |
| 20260906062306 | 27 | 95 | 1.6 | 6.4 | 0.00 | 0.00 | 0.00 | 82 | 1014.3 |
| 20260906062202 | 27 | 94 | 1.6 | 6.4 | 0.00 | 0.00 | 0.00 | 81 | 1014.3 |
| 20260906062102 | 27 | 92 | 1.6 | 6.4 | 0.00 | 0.00 | 0.00 | 81 | 1014.3 |
| 20260906062003 | 27 | 99 | 1.6 | 6.4 | 0.00 | 0.00 | 0.00 | 81 | 1014.3 |
| 20260906061903 | 27 | 101 | 1.6 | 6.4 | 0.00 | 0.00 | 0.00 | 81 | 1014.3 |
| 20260906061803 | 27 | 97 | 1.6 | 6.4 | 0.00 | 0.00 | 0.00 | 81 | 1014.3 |
| 20260906061703 | 27 | 94 | 1.6 | 6.4 | 0.00 | 0.00 | 0.00 | 81 | 1014.3 |
| 20260906061603 | 27 | 93 | 1.6 | 6.4 | 0.00 | 0.00 | 0.00 | 81 | 1014.3 |
| 20260906061503 | 27 | 92 | 1.6 | 6.4 | 0.00 | 0.00 | 0.00 | 81 | 1014.3 |
| 20260906061402 | 27 | 93 | 1.6 | 6.4 | 0.00 | 0.00 | 0.00 | 81 | 1014.3 |
| 20260906061203 | 27 | 91 | 1.6 | 6.4 | 0.00 | 0.00 | 0.00 | 81 | 1014.3 |
| 20260906061102 | 27 | 88 | 1.6 | 8.0 | 0.00 | 0.00 | 0.00 | 81 | 1014.3 |
| 20260906061003 | 27 | 80 | 1.6 | 8.0 | 0.00 | 0.00 | 0.00 | 81 | 1014.3 |
| 20260906060903 | 27 | 78 | 1.6 | 8.0 | 0.00 | 0.00 | 0.00 | 80 | 1014.3 |
| 20260906060802 | 27 | 76 | 1.6 | 8.0 | 0.00 | 0.00 | 0.00 | 80 | 1014.3 |
| 20260906060702 | 27 | 73 | 1.6 | 8.0 | 0.00 | 0.00 | 0.00 | 80 | 1014.3 |
| 20260906060603 | 27 | 76 | 1.6 | 8.0 | 0.00 | 0.00 | 0.00 | 80 | 1014.3 |
| 20260906060503 | 27 | 80 | 1.6 | 8.0 | 0.00 | 0.00 | 0.00 | 80 | 1014.3 |
| 20260906060403 | 27 | 79 | 1.6 | 8.0 | 0.00 | 0.00 | 0.00 | 80 | 1014.4 |
| 20260906060302 | 27 | 80 | 1.6 | 8.0 | 0.00 | 0.00 | 0.00 | 80 | 1014.4 |
| 20260906060202 | 27 | 79 | 1.6 | 8.0 | 0.00 | 0.00 | 0.00 | 80 | 1014.5 |
| 20260906060103 | 27 | 88 | 1.6 | 6.4 | 0.00 | 0.00 | 0.00 | 80 | 1014.4 |
| 20260906060003 | 27 | 90 | 1.6 | 6.4 | 0.00 | 0.00 | 0.00 | 80 | 1014.5 |
| 20260906055903 | 27 | 89 | 1.6 | 6.4 | 0.00 | 0.00 | 0.00 | 80 | 1014.5 |
| 20260906055702 | 27 | 85 | 3.2 | 6.4 | 0.00 | 0.00 | 0.00 | 79 | 1014.5 |
| 20260906055603 | 27 | 86 | 3.2 | 6.4 | 0.00 | 0.00 | 0.00 | 79 | 1014.5 |
| 20260906055503 | 27 | 82 | 3.2 | 6.4 | 0.00 | 0.00 | 0.00 | 79 | 1014.5 |
| 20260906055403 | 27 | 77 | 3.2 | 8.0 | 0.00 | 0.00 | 0.00 | 79 | 1014.5 |
| 20260906055306 | 27 | 76 | 3.2 | 8.0 | 0.00 | 0.00 | 0.00 | 79 | 1014.5 |
| 20260906055204 | 27 | 76 | 3.2 | 8.0 | 0.00 | 0.00 | 0.00 | 79 | 1014.5 |
| 20260906055102 | 27 | 75 | 3.2 | 8.0 | 0.00 | 0.00 | 0.00 | 79 | 1014.5 |
| 20260906055003 | 27 | 77 | 3.2 | 8.0 | 0.00 | 0.00 | 0.00 | 79 | 1014.4 |
| 20260906054703 | 27 | 77 | 3.2 | 8.0 | 0.00 | 0.00 | 0.00 | 78 | 1014.4 |
| 20260906054602 | 27 | 76 | 3.2 | 8.0 | 0.00 | 0.00 | 0.00 | 78 | 1014.5 |
| 20260906054503 | 27 | 73 | 3.2 | 14.5 | 0.00 | 0.00 | 0.00 | 78 | 1014.4 |
| 20260906054403 | 27 | 75 | 3.2 | 14.5 | 0.00 | 0.00 | 0.00 | 78 | 1014.4 |
| 20260906054303 | 27 | 79 | 3.2 | 14.5 | 0.00 | 0.00 | 0.00 | 78 | 1014.4 |
| 20260906054203 | 27 | 78 | 3.2 | 14.5 | 0.00 | 0.00 | 0.00 | 78 | 1014.4 |
| 20260906054102 | 27 | 75 | 4.8 | 14.5 | 0.00 | 0.00 | 0.00 | 78 | 1014.3 |
| 20260906054002 | 27 | 79 | 4.8 | 14.5 | 0.00 | 0.00 | 0.00 | 78 | 1014.3 |
| 20260906053803 | 27 | 79 | 3.2 | 14.5 | 0.00 | 0.00 | 0.00 | 78 | 1014.3 |
| 20260906053602 | 27 | 76 | 3.2 | 14.5 | 0.00 | 0.00 | 0.00 | 78 | 1014.3 |
| 20260906053502 | 28 | 80 | 3.2 | 14.5 | 0.00 | 0.00 | 0.00 | 78 | 1014.2 |
| 20260906053402 | 28 | 80 | 3.2 | 14.5 | 0.00 | 0.00 | 0.00 | 78 | 1014.2 |
| 20260906053304 | 28 | 79 | 3.2 | 14.5 | 0.00 | 0.00 | 0.00 | 77 | 1014.2 |
| 20260906053203 | 28 | 78 | 3.2 | 9.7 | 0.00 | 0.00 | 0.00 | 77 | 1014.2 |
| 20260906053102 | 28 | 81 | 3.2 | 9.7 | 0.00 | 0.00 | 0.00 | 77 | 1014.2 |
| 20260906053002 | 28 | 79 | 3.2 | 9.7 | 0.00 | 0.00 | 0.00 | 77 | 1014.2 |
| 20260906052902 | 28 | 82 | 3.2 | 9.7 | 0.00 | 0.00 | 0.00 | 77 | 1014.2 |
| 20260906052703 | 28 | 83 | 3.2 | 9.7 | 0.00 | 0.00 | 0.00 | 77 | 1014.3 |
| 20260906052602 | 28 | 86 | 3.2 | 9.7 | 0.00 | 0.00 | 0.00 | 77 | 1014.3 |
| 20260906052403 | 28 | 81 | 3.2 | 9.7 | 0.00 | 0.00 | 0.00 | 77 | 1014.3 |
| 20260906052202 | 28 | 85 | 3.2 | 9.7 | 0.00 | 0.00 | 0.00 | 77 | 1014.3 |
| 20260906052102 | 28 | 86 | 3.2 | 6.4 | 0.00 | 0.00 | 0.00 | 76 | 1014.3 |
| 20260906052002 | 28 | 80 | 3.2 | 8.0 | 0.00 | 0.00 | 0.00 | 76 | 1014.3 |
| 20260906051902 | 28 | 78 | 3.2 | 8.0 | 0.00 | 0.00 | 0.00 | 76 | 1014.2 |
| 20260906051802 | 28 | 79 | 3.2 | 8.0 | 0.00 | 0.00 | 0.00 | 76 | 1014.2 |
| 20260906051703 | 28 | 81 | 3.2 | 8.0 | 0.00 | 0.00 | 0.00 | 76 | 1014.2 |
| 20260906051602 | 28 | 79 | 3.2 | 8.0 | 0.00 | 0.00 | 0.00 | 76 | 1014.3 |
| 20260906051503 | 28 | 80 | 3.2 | 9.7 | 0.00 | 0.00 | 0.00 | 76 | 1014.2 |
| 20260906051302 | 28 | 77 | 3.2 | 9.7 | 0.00 | 0.00 | 0.00 | 76 | 1014.3 |
| 20260906051103 | 28 | 72 | 3.2 | 9.7 | 0.00 | 0.00 | 0.00 | 76 | 1014.2 |
| 20260906051003 | 28 | 74 | 3.2 | 9.7 | 0.00 | 0.00 | 0.00 | 76 | 1014.2 |
| 20260906050903 | 28 | 79 | 3.2 | 9.7 | 0.00 | 0.00 | 0.00 | 76 | 1014.2 |
| 20260906050804 | 28 | 82 | 3.2 | 9.7 | 0.00 | 0.00 | 0.00 | 76 | 1014.2 |
| 20260906050702 | 28 | 80 | 3.2 | 9.7 | 0.00 | 0.00 | 0.00 | 76 | 1014.2 |
| 20260906050603 | 28 | 82 | 1.6 | 9.7 | 0.00 | 0.00 | 0.00 | 75 | 1014.2 |
| 20260906050502 | 28 | 83 | 1.6 | 9.7 | 0.00 | 0.00 | 0.00 | 75 | 1014.2 |
| 20260906050403 | 28 | 92 | 1.6 | 8.0 | 0.00 | 0.00 | 0.00 | 75 | 1014.1 |
| 20260906050302 | 28 | 96 | 1.6 | 4.8 | 0.00 | 0.00 | 0.00 | 75 | 1014.2 |
| 20260906050202 | 28 | 100 | 1.6 | 4.8 | 0.00 | 0.00 | 0.00 | 75 | 1014.1 |
| 20260906050103 | 28 | 106 | 1.6 | 4.8 | 0.00 | 0.00 | 0.00 | 75 | 1014.1 |
| 20260906045902 | 28 | 92 | 1.6 | 4.8 | 0.00 | 0.00 | 0.00 | 75 | 1014.0 |
| 20260906045704 | 28 | 80 | 1.6 | 6.4 | 0.00 | 0.00 | 0.00 | 75 | 1014.0 |
| 20260906045402 | 28 | 69 | 3.2 | 6.4 | 0.00 | 0.00 | 0.00 | 75 | 1014.0 |
| 20260906045305 | 28 | 64 | 3.2 | 6.4 | 0.00 | 0.00 | 0.00 | 75 | 1014.0 |
| 20260906045203 | 28 | 68 | 3.2 | 8.0 | 0.00 | 0.00 | 0.00 | 75 | 1014.0 |
| 20260906045102 | 28 | 71 | 3.2 | 8.0 | 0.00 | 0.00 | 0.00 | 74 | 1014.0 |
| 20260906045002 | 28 | 76 | 3.2 | 8.0 | 0.00 | 0.00 | 0.00 | 74 | 1014.0 |
| 20260906044902 | 28 | 76 | 3.2 | 8.0 | 0.00 | 0.00 | 0.00 | 74 | 1014.0 |
| 20260906044802 | 28 | 79 | 1.6 | 8.0 | 0.00 | 0.00 | 0.00 | 74 | 1014.0 |
| 20260906044701 | 28 | 80 | 1.6 | 8.0 | 0.00 | 0.00 | 0.00 | 74 | 1013.9 |
| 20260906044602 | 28 | 79 | 1.6 | 8.0 | 0.00 | 0.00 | 0.00 | 74 | 1013.9 |
| 20260906044502 | 28 | 80 | 1.6 | 8.0 | 0.00 | 0.00 | 0.00 | 74 | 1013.9 |
| 20260906044302 | 28 | 82 | 3.2 | 8.0 | 0.00 | 0.00 | 0.00 | 74 | 1013.8 |
| 20260906044203 | 28 | 82 | 1.6 | 8.0 | 0.00 | 0.00 | 0.00 | 74 | 1013.8 |
| 20260906044102 | 28 | 76 | 3.2 | 8.0 | 0.00 | 0.00 | 0.00 | 74 | 1013.8 |
| 20260906044002 | 28 | 72 | 3.2 | 8.0 | 0.00 | 0.00 | 0.00 | 74 | 1013.8 |
| 20260906043902 | 28 | 72 | 3.2 | 8.0 | 0.00 | 0.00 | 0.00 | 74 | 1013.8 |
| 20260906043802 | 28 | 72 | 3.2 | 8.0 | 0.00 | 0.00 | 0.00 | 74 | 1013.8 |
| 20260906043701 | 28 | 69 | 3.2 | 8.0 | 0.00 | 0.00 | 0.00 | 73 | 1013.8 |
| 20260906043602 | 28 | 67 | 3.2 | 6.4 | 0.00 | 0.00 | 0.00 | 73 | 1013.8 |
| 20260906043502 | 28 | 68 | 3.2 | 6.4 | 0.00 | 0.00 | 0.00 | 73 | 1013.8 |
| 20260906043402 | 28 | 67 | 1.6 | 6.4 | 0.00 | 0.00 | 0.00 | 73 | 1013.8 |
| 20260906043302 | 28 | 66 | 1.6 | 6.4 | 0.00 | 0.00 | 0.00 | 73 | 1013.8 |
| 20260906043201 | 28 | 62 | 1.6 | 6.4 | 0.00 | 0.00 | 0.00 | 73 | 1013.8 |
| 20260906043002 | 28 | 60 | 1.6 | 6.4 | 0.00 | 0.00 | 0.00 | 73 | 1013.8 |
| 20260906042802 | 28 | 56 | 1.6 | 6.4 | 0.00 | 0.00 | 0.00 | 73 | 1013.7 |
| 20260906042702 | 28 | 56 | 1.6 | 6.4 | 0.00 | 0.00 | 0.00 | 73 | 1013.8 |
| 20260906042601 | 28 | 56 | 1.6 | 8.0 | 0.00 | 0.00 | 0.00 | 73 | 1013.8 |
| 20260906042502 | 28 | 56 | 3.2 | 11.3 | 0.00 | 0.00 | 0.00 | 73 | 1013.8 |
| 20260906042402 | 28 | 56 | 3.2 | 11.3 | 0.00 | 0.00 | 0.00 | 73 | 1013.8 |
| 20260906042306 | 28 | 58 | 3.2 | 14.5 | 0.00 | 0.00 | 0.00 | 73 | 1013.8 |
| 20260906042202 | 29 | 57 | 3.2 | 14.5 | 0.00 | 0.00 | 0.00 | 72 | 1013.8 |
| 20260906042101 | 29 | 57 | 3.2 | 14.5 | 0.00 | 0.00 | 0.00 | 72 | 1013.8 |
| 20260906041901 | 29 | 55 | 3.2 | 14.5 | 0.00 | 0.00 | 0.00 | 72 | 1013.7 |
| 20260906041802 | 29 | 55 | 3.2 | 14.5 | 0.00 | 0.00 | 0.00 | 72 | 1013.8 |
| 20260906041602 | 29 | 58 | 3.2 | 14.5 | 0.00 | 0.00 | 0.00 | 72 | 1013.7 |
| 20260906041502 | 29 | 58 | 3.2 | 14.5 | 0.00 | 0.00 | 0.00 | 72 | 1013.7 |
| 20260906041402 | 29 | 60 | 3.2 | 14.5 | 0.00 | 0.00 | 0.00 | 72 | 1013.7 |
| 20260906041202 | 29 | 61 | 3.2 | 8.0 | 0.00 | 0.00 | 0.00 | 72 | 1013.7 |
| 20260906041101 | 29 | 61 | 3.2 | 8.0 | 0.00 | 0.00 | 0.00 | 72 | 1013.7 |
| 20260906041003 | 29 | 61 | 3.2 | 8.0 | 0.00 | 0.00 | 0.00 | 72 | 1013.7 |
| 20260906040902 | 29 | 64 | 1.6 | 8.0 | 0.00 | 0.00 | 0.00 | 72 | 1013.7 |
| 20260906040802 | 29 | 65 | 1.6 | 8.0 | 0.00 | 0.00 | 0.00 | 72 | 1013.7 |
| 20260906040602 | 29 | 61 | 1.6 | 8.0 | 0.00 | 0.00 | 0.00 | 72 | 1013.7 |
| 20260906040501 | 29 | 62 | 1.6 | 6.4 | 0.00 | 0.00 | 0.00 | 72 | 1013.6 |
| 20260906040301 | 29 | 63 | 1.6 | 6.4 | 0.00 | 0.00 | 0.00 | 71 | 1013.7 |
| 20260906024701 | 30 | 74 | 1.6 | 8.0 | 0.00 | 0.00 | 0.00 | 65 | 1012.8 |
| 20260906024601 | 30 | 79 | 1.6 | 4.8 | 0.00 | 0.00 | 0.00 | 65 | 1012.8 |
| 20260906024402 | 30 | 81 | 1.6 | 4.8 | 0.00 | 0.00 | 0.00 | 64 | 1012.8 |
| 20260906024303 | 30 | 84 | 1.6 | 4.8 | 0.00 | 0.00 | 0.00 | 64 | 1012.8 |
| 20260906024201 | 30 | 88 | 1.6 | 4.8 | 0.00 | 0.00 | 0.00 | 64 | 1012.8 |
| 20260906024101 | 30 | 89 | 1.6 | 4.8 | 0.00 | 0.00 | 0.00 | 64 | 1012.8 |
| 20260906024001 | 30 | 88 | 1.6 | 4.8 | 0.00 | 0.00 | 0.00 | 64 | 1012.9 |
| 20260906023902 | 30 | 86 | 1.6 | 4.8 | 0.00 | 0.00 | 0.00 | 64 | 1012.9 |
| 20260906022901 | 30 | 91 | 1.6 | 3.2 | 0.00 | 0.00 | 0.00 | 63 | 1012.8 |
| 20260906022802 | 30 | 91 | 1.6 | 3.2 | 0.00 | 0.00 | 0.00 | 63 | 1012.8 |
| 20260906022601 | 30 | 93 | 1.6 | 3.2 | 0.00 | 0.00 | 0.00 | 62 | 1012.7 |
| 20260906022501 | 30 | 91 | 1.6 | 3.2 | 0.00 | 0.00 | 0.00 | 62 | 1012.7 |
| 20260906022401 | 30 | 95 | 1.6 | 3.2 | 0.00 | 0.00 | 0.00 | 62 | 1012.7 |
| 20260906022201 | 30 | 99 | 1.6 | 3.2 | 0.00 | 0.00 | 0.00 | 62 | 1012.7 |
| 20260906022101 | 30 | 98 | 1.6 | 3.2 | 0.00 | 0.00 | 0.00 | 62 | 1012.7 |
| 20260906022001 | 30 | 97 | 1.6 | 3.2 | 0.00 | 0.00 | 0.00 | 62 | 1012.7 |
| 20260906021801 | 30 | 99 | 1.6 | 3.2 | 0.00 | 0.00 | 0.00 | 62 | 1012.7 |
| 20260906021702 | 30 | 101 | 1.6 | 3.2 | 0.00 | 0.00 | 0.00 | 62 | 1012.7 |
| 20260906021601 | 30 | 104 | 1.6 | 3.2 | 0.00 | 0.00 | 0.00 | 62 | 1012.7 |
| 20260906021501 | 30 | 108 | 1.6 | 1.6 | 0.00 | 0.00 | 0.00 | 62 | 1012.7 |
| 20260906021401 | 30 | 109 | 0.0 | 1.6 | 0.00 | 0.00 | 0.00 | 61 | 1012.7 |
| 20260906021301 | 30 | 104 | 0.0 | 3.2 | 0.00 | 0.00 | 0.00 | 61 | 1012.7 |
| 20260906021101 | 30 | 104 | 0.0 | 3.2 | 0.00 | 0.00 | 0.00 | 61 | 1012.6 |
| 20260906021001 | 30 | 102 | 0.0 | 3.2 | 0.00 | 0.00 | 0.00 | 61 | 1012.6 |
| 20260906020902 | 30 | 101 | 0.0 | 3.2 | 0.00 | 0.00 | 0.00 | 61 | 1012.6 |
| 20260906020800 | 30 | 99 | 0.0 | 3.2 | 0.00 | 0.00 | 0.00 | 61 | 1012.6 |
| 20260906020700 | 30 | 98 | 0.0 | 3.2 | 0.00 | 0.00 | 0.00 | 61 | 1012.6 |
| 20260906020601 | 30 | 104 | 0.0 | 3.2 | 0.00 | 0.00 | 0.00 | 61 | 1012.6 |
| 20260906020501 | 30 | 107 | 0.0 | 3.2 | 0.00 | 0.00 | 0.00 | 61 | 1012.6 |
| 20260906020402 | 30 | 107 | 0.0 | 3.2 | 0.00 | 0.00 | 0.00 | 61 | 1012.5 |
| 20260906020302 | 30 | 110 | 1.6 | 3.2 | 0.00 | 0.00 | 0.00 | 61 | 1012.5 |
| 20260906020200 | 30 | 111 | 1.6 | 3.2 | 0.00 | 0.00 | 0.00 | 61 | 1012.6 |
| 20260906020100 | 30 | 111 | 1.6 | 3.2 | 0.00 | 0.00 | 0.00 | 61 | 1012.5 |
| 20260906020001 | 30 | 111 | 1.6 | 3.2 | 0.00 | 0.00 | 0.00 | 61 | 1012.5 |
| 20260906015902 | 30 | 113 | 0.0 | 3.2 | 0.00 | 0.00 | 0.00 | 61 | 1012.5 |
| 20260906015702 | 30 | 112 | 0.0 | 3.2 | 0.00 | 0.00 | 0.00 | 61 | 1012.4 |
| 20260906015601 | 30 | 110 | 0.0 | 3.2 | 0.00 | 0.00 | 0.00 | 61 | 1012.4 |
| 20260906015501 | 30 | 103 | 0.0 | 3.2 | 0.00 | 0.00 | 0.00 | 60 | 1012.3 |
| 20260906015401 | 30 | 102 | 0.0 | 3.2 | 0.00 | 0.00 | 0.00 | 60 | 1012.2 |
| 20260906015300 | 30 | 104 | 0.0 | 3.2 | 0.00 | 0.00 | 0.00 | 60 | 1012.3 |
| 20260906015102 | 30 | 113 | 0.0 | 3.2 | 0.00 | 0.00 | 0.00 | 60 | 1012.2 |
| 20260906015001 | 30 | 119 | 0.0 | 3.2 | 0.00 | 0.00 | 0.00 | 60 | 1012.2 |
| 20260906014901 | 30 | 123 | 0.0 | 3.2 | 0.00 | 0.00 | 0.00 | 60 | 1012.2 |
| 20260906014801 | 30 | 125 | 0.0 | 3.2 | 0.00 | 0.00 | 0.00 | 60 | 1012.2 |
| 20260906014702 | 30 | 125 | 0.0 | 3.2 | 0.00 | 0.00 | 0.00 | 60 | 1012.2 |
| 20260906014600 | 30 | 125 | 0.0 | 3.2 | 0.00 | 0.00 | 0.00 | 60 | 1012.2 |
| 20260906014500 | 31 | 125 | 0.0 | 3.2 | 0.00 | 0.00 | 0.00 | 59 | 1012.2 |
| 20260906014401 | 31 | 125 | 0.0 | 3.2 | 0.00 | 0.00 | 0.00 | 59 | 1012.2 |
| 20260906014301 | 31 | 125 | 0.0 | 3.2 | 0.00 | 0.00 | 0.00 | 59 | 1012.2 |
| 20260906014201 | 31 | 127 | 0.0 | 3.2 | 0.00 | 0.00 | 0.00 | 59 | 1012.2 |
| 20260906014101 | 31 | 130 | 0.0 | 3.2 | 0.00 | 0.00 | 0.00 | 59 | 1012.2 |
| 20260906014000 | 31 | 130 | 0.0 | 3.2 | 0.00 | 0.00 | 0.00 | 58 | 1012.2 |
| 20260906013900 | 31 | 130 | 0.0 | 3.2 | 0.00 | 0.00 | 0.00 | 58 | 1012.2 |
| 20260906013801 | 31 | 132 | 0.0 | 3.2 | 0.00 | 0.00 | 0.00 | 58 | 1012.1 |
| 20260906013701 | 31 | 132 | 0.0 | 3.2 | 0.00 | 0.00 | 0.00 | 58 | 1012.2 |
| 20260906013501 | 31 | 129 | 0.0 | 3.2 | 0.00 | 0.00 | 0.00 | 58 | 1012.2 |
| 20260906013400 | 31 | 129 | 0.0 | 3.2 | 0.00 | 0.00 | 0.00 | 58 | 1012.2 |
| 20260906013200 | 31 | 126 | 0.0 | 3.2 | 0.00 | 0.00 | 0.00 | 58 | 1012.1 |
| 20260906013102 | 31 | 118 | 0.0 | 3.2 | 0.00 | 0.00 | 0.00 | 58 | 1012.1 |
| 20260906013001 | 31 | 116 | 0.0 | 3.2 | 0.00 | 0.00 | 0.00 | 58 | 1012.1 |
| 20260906012901 | 31 | 111 | 0.0 | 3.2 | 0.00 | 0.00 | 0.00 | 58 | 1012.1 |
| 20260906012700 | 31 | 107 | 0.0 | 3.2 | 0.00 | 0.00 | 0.00 | 57 | 1012.1 |
| 20260906012501 | 31 | 93 | 0.0 | 3.2 | 0.00 | 0.00 | 0.00 | 57 | 1012.1 |
| 20260906012401 | 31 | 93 | 0.0 | 3.2 | 0.00 | 0.00 | 0.00 | 57 | 1012.1 |
| 20260906012301 | 31 | 93 | 0.0 | 3.2 | 0.00 | 0.00 | 0.00 | 57 | 1012.0 |
| 20260906012202 | 31 | 90 | 0.0 | 3.2 | 0.00 | 0.00 | 0.00 | 57 | 1012.1 |
| 20260906012101 | 31 | 93 | 0.0 | 3.2 | 0.00 | 0.00 | 0.00 | 58 | 1012.0 |
| 20260906011901 | 31 | 95 | 0.0 | 3.2 | 0.00 | 0.00 | 0.00 | 58 | 1012.0 |
| 20260906011803 | 31 | 95 | 0.0 | 3.2 | 0.00 | 0.00 | 0.00 | 58 | 1012.0 |
| 20260906011700 | 31 | 97 | 0.0 | 3.2 | 0.00 | 0.00 | 0.00 | 58 | 1012.0 |
| 20260906011600 | 31 | 102 | 0.0 | 3.2 | 0.00 | 0.00 | 0.00 | 58 | 1012.0 |
| 20260906011501 | 31 | 120 | 0.0 | 3.2 | 0.00 | 0.00 | 0.00 | 57 | 1012.0 |
| 20260906011401 | 31 | 121 | 0.0 | 3.2 | 0.00 | 0.00 | 0.00 | 57 | 1012.0 |
| 20260906011300 | 31 | 123 | 0.0 | 3.2 | 0.00 | 0.00 | 0.00 | 57 | 1012.0 |
| 20260906011200 | 31 | 123 | 0.0 | 3.2 | 0.00 | 0.00 | 0.00 | 57 | 1011.9 |
| 20260906011101 | 31 | 123 | 0.0 | 3.2 | 0.00 | 0.00 | 0.00 | 57 | 1011.9 |
| 20260906011001 | 31 | 124 | 0.0 | 3.2 | 0.00 | 0.00 | 0.00 | 57 | 1011.8 |
| 20260906010901 | 31 | 128 | 0.0 | 3.2 | 0.00 | 0.00 | 0.00 | 57 | 1011.8 |
| 20260906010801 | 31 | 128 | 0.0 | 3.2 | 0.00 | 0.00 | 0.00 | 57 | 1011.8 |
| 20260906010700 | 31 | 127 | 0.0 | 3.2 | 0.00 | 0.00 | 0.00 | 58 | 1011.8 |
| 20260906010500 | 31 | 126 | 0.0 | 3.2 | 0.00 | 0.00 | 0.00 | 59 | 1011.7 |
| 20260906010401 | 31 | 126 | 0.0 | 3.2 | 0.00 | 0.00 | 0.00 | 58 | 1011.7 |
| 20260906010300 | 31 | 124 | 0.0 | 3.2 | 0.00 | 0.00 | 0.00 | 58 | 1011.7 |
| 20260906010200 | 31 | 119 | 0.0 | 3.2 | 0.00 | 0.00 | 0.00 | 58 | 1011.7 |
| 20260906010100 | 31 | 118 | 0.0 | 3.2 | 0.00 | 0.00 | 0.00 | 58 | 1011.7 |
| 20260906010000 | 31 | 114 | 0.0 | 3.2 | 0.00 | 0.00 | 0.00 | 58 | 1011.6 |
| 20260906005901 | 31 | 114 | 0.0 | 3.2 | 0.00 | 0.00 | 0.00 | 58 | 1011.7 |
| 20260906005800 | 31 | 114 | 0.0 | 3.2 | 0.00 | 0.00 | 0.00 | 58 | 1011.7 |
| 20260906005700 | 31 | 111 | 0.0 | 3.2 | 0.00 | 0.00 | 0.00 | 58 | 1011.7 |
| 20260906005600 | 31 | 110 | 0.0 | 3.2 | 0.00 | 0.00 | 0.00 | 58 | 1011.7 |
| 20260906005500 | 31 | 109 | 0.0 | 3.2 | 0.00 | 0.00 | 0.00 | 58 | 1011.7 |
| 20260906005301 | 31 | 106 | 0.0 | 3.2 | 0.00 | 0.00 | 0.00 | 57 | 1011.7 |
| 20260906005200 | 31 | 107 | 0.0 | 3.2 | 0.00 | 0.00 | 0.00 | 58 | 1011.7 |
| 20260906005100 | 31 | 107 | 0.0 | 3.2 | 0.00 | 0.00 | 0.00 | 58 | 1011.7 |
| 20260906004900 | 31 | 108 | 0.0 | 3.2 | 0.00 | 0.00 | 0.00 | 57 | 1011.7 |
| 20260906004600 | 31 | 107 | 0.0 | 3.2 | 0.00 | 0.00 | 0.00 | 57 | 1011.7 |
| 20260906004400 | 31 | 104 | 0.0 | 3.2 | 0.00 | 0.00 | 0.00 | 57 | 1011.7 |
| 20260906004300 | 31 | 90 | 0.0 | 3.2 | 0.00 | 0.00 | 0.00 | 57 | 1011.7 |
| 20260906004201 | 31 | 83 | 0.0 | 4.8 | 0.00 | 0.00 | 0.00 | 57 | 1011.6 |
| 20260906004101 | 31 | 86 | 0.0 | 4.8 | 0.00 | 0.00 | 0.00 | 56 | 1011.6 |
| 20260906004000 | 31 | 87 | 0.0 | 4.8 | 0.00 | 0.00 | 0.00 | 56 | 1011.6 |
| 20260906003900 | 31 | 84 | 0.0 | 4.8 | 0.00 | 0.00 | 0.00 | 56 | 1011.6 |
| 20260906003801 | 31 | 78 | 0.0 | 4.8 | 0.00 | 0.00 | 0.00 | 56 | 1011.6 |
| 20260906003700 | 31 | 79 | 0.0 | 4.8 | 0.00 | 0.00 | 0.00 | 56 | 1011.7 |
| 20260906003601 | 31 | 78 | 0.0 | 4.8 | 0.00 | 0.00 | 0.00 | 56 | 1011.6 |
| 20260906003500 | 31 | 83 | 0.0 | 4.8 | 0.00 | 0.00 | 0.00 | 56 | 1011.6 |
| 20260906003400 | 31 | 84 | 0.0 | 4.8 | 0.00 | 0.00 | 0.00 | 56 | 1011.6 |
| 20260906003300 | 31 | 95 | 0.0 | 4.8 | 0.00 | 0.00 | 0.00 | 56 | 1011.6 |
| 20260906003200 | 31 | 110 | 0.0 | 3.2 | 0.00 | 0.00 | 0.00 | 56 | 1011.6 |
| 20260906003100 | 31 | 107 | 0.0 | 3.2 | 0.00 | 0.00 | 0.00 | 57 | 1011.6 |
| 20260906003001 | 31 | 106 | 0.0 | 3.2 | 0.00 | 0.00 | 0.00 | 57 | 1011.6 |
| 20260906002900 | 31 | 106 | 0.0 | 3.2 | 0.00 | 0.00 | 0.00 | 56 | 1011.6 |
| 20260906002800 | 31 | 109 | 0.0 | 3.2 | 0.00 | 0.00 | 0.00 | 56 | 1011.6 |
| 20260906002700 | 31 | 108 | 0.0 | 3.2 | 0.00 | 0.00 | 0.00 | 56 | 1011.6 |
| 20260906002600 | 31 | 108 | 0.0 | 3.2 | 0.00 | 0.00 | 0.00 | 56 | 1011.6 |
| 20260906002401 | 31 | 108 | 0.0 | 3.2 | 0.00 | 0.00 | 0.00 | 56 | 1011.6 |
| 20260906002201 | 31 | 107 | 0.0 | 3.2 | 0.00 | 0.00 | 0.00 | 56 | 1011.6 |
| 20260906001800 | 31 | 101 | 0.0 | 3.2 | 0.00 | 0.00 | 0.00 | 56 | 1011.6 |
| 20260906001700 | 31 | 101 | 0.0 | 3.2 | 0.00 | 0.00 | 0.00 | 55 | 1011.6 |
| 20260906001600 | 31 | 100 | 1.6 | 1.6 | 0.00 | 0.00 | 0.00 | 55 | 1011.7 |
| 20260906001502 | 31 | 93 | 1.6 | 3.2 | 0.00 | 0.00 | 0.00 | 56 | 1011.7 |
| 20260906001300 | 31 | 93 | 1.6 | 3.2 | 0.00 | 0.00 | 0.00 | 55 | 1011.7 |
| 20260906001200 | 32 | 90 | 1.6 | 3.2 | 0.00 | 0.00 | 0.00 | 55 | 1011.7 |
| 20260906001000 | 32 | 90 | 1.6 | 3.2 | 0.00 | 0.00 | 0.00 | 54 | 1011.7 |
| 20260906000800 | 32 | 89 | 1.6 | 3.2 | 0.00 | 0.00 | 0.00 | 55 | 1011.7 |
| 20260906000700 | 32 | 85 | 0.0 | 3.2 | 0.00 | 0.00 | 0.00 | 55 | 1011.7 |
| 20260906000500 | 32 | 87 | 0.0 | 3.2 | 0.00 | 0.00 | 0.00 | 55 | 1011.7 |
| 20260906000400 | 32 | 84 | 0.0 | 3.2 | 0.00 | 0.00 | 0.00 | 54 | 1011.7 |
| 20260906000300 | 32 | 86 | 0.0 | 3.2 | 0.00 | 0.00 | 0.00 | 54 | 1011.7 |
| 20260906000159 | 32 | 93 | 0.0 | 3.2 | 0.00 | 0.00 | 0.00 | 54 | 1011.7 |
| 20260906000100 | 32 | 81 | 0.0 | 3.2 | 0.00 | 0.00 | 0.00 | 55 | 1011.7 |
| 20260906000001 | 32 | 86 | 0.0 | 3.2 | 0.00 | 0.00 | 0.00 | 55 | 1011.7 |
| 20260905235900 | 32 | 86 | 0.0 | 3.2 | 0.00 | 0.00 | 0.00 | 54 | 1011.8 |
| 20260905235700 | 32 | 90 | 0.0 | 3.2 | 0.00 | 0.00 | 0.00 | 54 | 1011.8 |
| 20260905235601 | 32 | 94 | 0.0 | 3.2 | 0.00 | 0.00 | 0.00 | 54 | 1011.7 |
| 20260905235400 | 32 | 97 | 0.0 | 3.2 | 0.00 | 0.00 | 0.00 | 54 | 1011.7 |
| 20260905235301 | 32 | 96 | 0.0 | 3.2 | 0.00 | 0.00 | 0.00 | 53 | 1011.7 |
| 20260905235200 | 32 | 95 | 0.0 | 3.2 | 0.00 | 0.00 | 0.00 | 54 | 1011.7 |
| 20260905235101 | 32 | 116 | 0.0 | 3.2 | 0.00 | 0.00 | 0.00 | 55 | 1011.7 |
| 20260905235000 | 32 | 117 | 0.0 | 3.2 | 0.00 | 0.00 | 0.00 | 54 | 1011.7 |
| 20260905234859 | 32 | 107 | 0.0 | 3.2 | 0.00 | 0.00 | 0.00 | 54 | 1011.7 |
| 20260905234800 | 32 | 109 | 1.6 | 3.2 | 0.00 | 0.00 | 0.00 | 54 | 1011.7 |
| 20260905234600 | 32 | 91 | 1.6 | 4.8 | 0.00 | 0.00 | 0.00 | 55 | 1011.7 |
| 20260905234500 | 32 | 82 | 1.6 | 4.8 | 0.00 | 0.00 | 0.00 | 55 | 1011.8 |
| 20260905234400 | 32 | 81 | 1.6 | 4.8 | 0.00 | 0.00 | 0.00 | 55 | 1011.8 |
| 20260905234301 | 32 | 66 | 1.6 | 6.4 | 0.00 | 0.00 | 0.00 | 55 | 1011.7 |
| 20260905234200 | 32 | 55 | 1.6 | 6.4 | 0.00 | 0.00 | 0.00 | 55 | 1011.8 |
| 20260905234100 | 32 | 50 | 1.6 | 6.4 | 0.00 | 0.00 | 0.00 | 55 | 1011.8 |
| 20260905234001 | 32 | 45 | 1.6 | 6.4 | 0.00 | 0.00 | 0.00 | 55 | 1011.8 |
| 20260905233900 | 32 | 45 | 1.6 | 6.4 | 0.00 | 0.00 | 0.00 | 55 | 1011.8 |
| 20260905233800 | 32 | 39 | 1.6 | 6.4 | 0.00 | 0.00 | 0.00 | 55 | 1011.8 |
| 20260905233659 | 32 | 34 | 1.6 | 6.4 | 0.00 | 0.00 | 0.00 | 55 | 1011.8 |
| 20260905233559 | 32 | 33 | 1.6 | 6.4 | 0.00 | 0.00 | 0.00 | 54 | 1011.7 |
| 20260905233500 | 32 | 38 | 1.6 | 6.4 | 0.00 | 0.00 | 0.00 | 54 | 1011.7 |
| 20260905233401 | 32 | 40 | 1.6 | 6.4 | 0.00 | 0.00 | 0.00 | 54 | 1011.7 |
| 20260905233300 | 32 | 45 | 1.6 | 4.8 | 0.00 | 0.00 | 0.00 | 54 | 1011.7 |
| 20260905233159 | 32 | 52 | 1.6 | 4.8 | 0.00 | 0.00 | 0.00 | 54 | 1011.8 |
| 20260905233000 | 32 | 61 | 1.6 | 4.8 | 0.00 | 0.00 | 0.00 | 53 | 1011.7 |
| 20260905232900 | 32 | 51 | 1.6 | 6.4 | 0.00 | 0.00 | 0.00 | 53 | 1011.7 |
| 20260905232800 | 32 | 43 | 1.6 | 6.4 | 0.00 | 0.00 | 0.00 | 54 | 1011.7 |
| 20260905232700 | 32 | 39 | 3.2 | 6.4 | 0.00 | 0.00 | 0.00 | 54 | 1011.7 |
| 20260905232600 | 32 | 37 | 3.2 | 6.4 | 0.00 | 0.00 | 0.00 | 53 | 1011.7 |
| 20260905232400 | 32 | 29 | 3.2 | 6.4 | 0.00 | 0.00 | 0.00 | 54 | 1011.8 |
| 20260905232300 | 32 | 30 | 3.2 | 6.4 | 0.00 | 0.00 | 0.00 | 54 | 1011.8 |
| 20260905232200 | 32 | 29 | 3.2 | 6.4 | 0.00 | 0.00 | 0.00 | 53 | 1011.8 |
| 20260905231900 | 32 | 28 | 3.2 | 9.7 | 0.00 | 0.00 | 0.00 | 54 | 1011.9 |
| 20260905231759 | 32 | 27 | 3.2 | 9.7 | 0.00 | 0.00 | 0.00 | 54 | 1011.9 |
| 20260905231659 | 32 | 26 | 3.2 | 9.7 | 0.00 | 0.00 | 0.00 | 54 | 1011.9 |
| 20260905231500 | 33 | 24 | 3.2 | 9.7 | 0.00 | 0.00 | 0.00 | 53 | 1012.0 |
| 20260905231400 | 33 | 24 | 3.2 | 9.7 | 0.00 | 0.00 | 0.00 | 54 | 1011.9 |
| 20260905231259 | 33 | 21 | 3.2 | 9.7 | 0.00 | 0.00 | 0.00 | 54 | 1011.9 |
| 20260905231159 | 33 | 20 | 3.2 | 9.7 | 0.00 | 0.00 | 0.00 | 54 | 1012.0 |
| 20260905231100 | 33 | 18 | 3.2 | 9.7 | 0.00 | 0.00 | 0.00 | 53 | 1012.0 |
| 20260905231000 | 33 | 12 | 3.2 | 9.7 | 0.00 | 0.00 | 0.00 | 53 | 1012.0 |
| 20260905230900 | 33 | 9 | 3.2 | 9.7 | 0.00 | 0.00 | 0.00 | 53 | 1011.9 |
| 20260905230800 | 33 | 10 | 3.2 | 9.7 | 0.00 | 0.00 | 0.00 | 53 | 1012.0 |
| 20260905230600 | 33 | 4 | 1.6 | 8.0 | 0.00 | 0.00 | 0.00 | 53 | 1011.9 |
| 20260905230500 | 33 | 6 | 1.6 | 9.7 | 0.00 | 0.00 | 0.00 | 53 | 1011.8 |
| 20260905230400 | 33 | 13 | 1.6 | 9.7 | 0.00 | 0.00 | 0.00 | 53 | 1011.8 |
| 20260905230159 | 33 | 12 | 1.6 | 11.3 | 0.00 | 0.00 | 0.00 | 52 | 1011.9 |
| 20260905230100 | 33 | 8 | 3.2 | 11.3 | 0.00 | 0.00 | 0.00 | 53 | 1011.8 |
| 20260905230000 | 33 | 11 | 3.2 | 11.3 | 0.00 | 0.00 | 0.00 | 52 | 1011.9 |
| 20260905225900 | 33 | 14 | 3.2 | 11.3 | 0.00 | 0.00 | 0.00 | 52 | 1011.9 |
| 20260905225700 | 33 | 15 | 4.8 | 11.3 | 0.00 | 0.00 | 0.00 | 52 | 1012.0 |
| 20260905225559 | 34 | 15 | 4.8 | 11.3 | 0.00 | 0.00 | 0.00 | 52 | 1012.1 |
| 20260905225459 | 34 | 15 | 4.8 | 11.3 | 0.00 | 0.00 | 0.00 | 52 | 1012.0 |
| 20260905225359 | 34 | 10 | 6.4 | 11.3 | 0.00 | 0.00 | 0.00 | 51 | 1012.1 |
| 20260905225300 | 34 | 14 | 6.4 | 14.5 | 0.00 | 0.00 | 0.00 | 51 | 1012.1 |
| 20260905225200 | 34 | 13 | 6.4 | 14.5 | 0.00 | 0.00 | 0.00 | 51 | 1012.1 |
| 20260905225059 | 34 | 13 | 4.8 | 14.5 | 0.00 | 0.00 | 0.00 | 50 | 1012.1 |
| 20260905224959 | 34 | 11 | 4.8 | 14.5 | 0.00 | 0.00 | 0.00 | 50 | 1012.0 |
| 20260905224859 | 35 | 7 | 4.8 | 14.5 | 0.00 | 0.00 | 0.00 | 49 | 1012.0 |
| 20260905224800 | 35 | 5 | 4.8 | 14.5 | 0.00 | 0.00 | 0.00 | 48 | 1011.9 |
| 20260905224700 | 35 | 359 | 4.8 | 14.5 | 0.00 | 0.00 | 0.00 | 48 | 1012.0 |
| 20260905224600 | 35 | 358 | 4.8 | 14.5 | 0.00 | 0.00 | 0.00 | 47 | 1012.0 |
| 20260905224459 | 35 | 352 | 3.2 | 14.5 | 0.00 | 0.00 | 0.00 | 47 | 1012.0 |
| 20260905224359 | 35 | 350 | 3.2 | 14.5 | 0.00 | 0.00 | 0.00 | 47 | 1011.8 |
| 20260905224259 | 35 | 336 | 3.2 | 6.4 | 0.00 | 0.00 | 0.00 | 48 | 1011.8 |
| 20260905224100 | 35 | 329 | 3.2 | 6.4 | 0.00 | 0.00 | 0.00 | 47 | 1011.7 |
| 20260905224000 | 35 | 328 | 3.2 | 6.4 | 0.00 | 0.00 | 0.00 | 47 | 1011.7 |
| 20260905223900 | 35 | 328 | 3.2 | 6.4 | 0.00 | 0.00 | 0.00 | 47 | 1011.8 |
| 20260905223759 | 35 | 328 | 3.2 | 6.4 | 0.00 | 0.00 | 0.00 | 47 | 1011.9 |
| 20260905223459 | 36 | 324 | 3.2 | 9.7 | 0.00 | 0.00 | 0.00 | 46 | 1011.8 |
| 20260905223359 | 36 | 323 | 3.2 | 9.7 | 0.00 | 0.00 | 0.00 | 47 | 1011.8 |
| 20260905223300 | 36 | 323 | 3.2 | 9.7 | 0.00 | 0.00 | 0.00 | 46 | 1011.8 |
| 20260905223200 | 36 | 324 | 3.2 | 9.7 | 0.00 | 0.00 | 0.00 | 46 | 1011.8 |
| 20260905223100 | 36 | 322 | 3.2 | 9.7 | 0.00 | 0.00 | 0.00 | 47 | 1011.8 |
| 20260905223000 | 36 | 323 | 3.2 | 9.7 | 0.00 | 0.00 | 0.00 | 47 | 1011.7 |
| 20260905222300 | 36 | 323 | 4.8 | 8.0 | 0.00 | 0.00 | 0.00 | 46 | 1011.7 |
| 20260905222159 | 36 | 324 | 4.8 | 8.0 | 0.00 | 0.00 | 0.00 | 46 | 1011.8 |
| 20260905222100 | 36 | 324 | 4.8 | 8.0 | 0.00 | 0.00 | 0.00 | 46 | 1011.8 |
| 20260905222000 | 36 | 325 | 4.8 | 8.0 | 0.00 | 0.00 | 0.00 | 45 | 1011.8 |
| 20260905221859 | 36 | 327 | 4.8 | 8.0 | 0.00 | 0.00 | 0.00 | 46 | 1011.9 |
| 20260905221759 | 36 | 328 | 4.8 | 8.0 | 0.00 | 0.00 | 0.00 | 45 | 1011.9 |
| 20260905221659 | 36 | 327 | 4.8 | 8.0 | 0.00 | 0.00 | 0.00 | 44 | 1011.9 |
| 20260905221559 | 36 | 329 | 4.8 | 8.0 | 0.00 | 0.00 | 0.00 | 44 | 1011.9 |
| 20260905221459 | 36 | 329 | 4.8 | 8.0 | 0.00 | 0.00 | 0.00 | 44 | 1011.9 |
| 20260905221359 | 36 | 331 | 4.8 | 8.0 | 0.00 | 0.00 | 0.00 | 44 | 1011.9 |
| 20260905221300 | 36 | 331 | 3.2 | 8.0 | 0.00 | 0.00 | 0.00 | 44 | 1011.9 |
| 20260905221159 | 36 | 330 | 3.2 | 8.0 | 0.00 | 0.00 | 0.00 | 44 | 1011.9 |
| 20260905221100 | 36 | 330 | 3.2 | 8.0 | 0.00 | 0.00 | 0.00 | 44 | 1011.9 |
| 20260905220859 | 36 | 325 | 3.2 | 8.0 | 0.00 | 0.00 | 0.00 | 46 | 1011.9 |
| 20260905220800 | 36 | 324 | 3.2 | 8.0 | 0.00 | 0.00 | 0.00 | 45 | 1011.9 |
| 20260905220659 | 36 | 325 | 3.2 | 8.0 | 0.00 | 0.00 | 0.00 | 43 | 1011.8 |
| 20260905220559 | 36 | 323 | 3.2 | 8.0 | 0.00 | 0.00 | 0.00 | 43 | 1011.8 |
| 20260905220459 | 36 | 322 | 3.2 | 8.0 | 0.00 | 0.00 | 0.00 | 44 | 1011.8 |
| 20260905220200 | 36 | 324 | 3.2 | 6.4 | 0.00 | 0.00 | 0.00 | 44 | 1011.8 |
| 20260905220059 | 36 | 323 | 3.2 | 6.4 | 0.00 | 0.00 | 0.00 | 44 | 1011.8 |
| 20260905215959 | 36 | 323 | 3.2 | 6.4 | 0.00 | 0.00 | 0.00 | 44 | 1011.7 |
| 20260905215900 | 36 | 323 | 3.2 | 6.4 | 0.00 | 0.00 | 0.00 | 45 | 1011.7 |
| 20260905215759 | 36 | 322 | 3.2 | 6.4 | 0.00 | 0.00 | 0.00 | 45 | 1011.7 |
| 20260905215659 | 36 | 325 | 3.2 | 6.4 | 0.00 | 0.00 | 0.00 | 46 | 1011.7 |
| 20260905215559 | 36 | 326 | 3.2 | 6.4 | 0.00 | 0.00 | 0.00 | 45 | 1011.7 |
| 20260905215459 | 36 | 327 | 3.2 | 6.4 | 0.00 | 0.00 | 0.00 | 44 | 1011.8 |
| 20260905215400 | 36 | 328 | 3.2 | 6.4 | 0.00 | 0.00 | 0.00 | 44 | 1011.7 |
| 20260905215259 | 36 | 328 | 3.2 | 6.4 | 0.00 | 0.00 | 0.00 | 45 | 1011.7 |
| 20260905215159 | 36 | 328 | 3.2 | 6.4 | 0.00 | 0.00 | 0.00 | 45 | 1011.7 |
| 20260905215059 | 36 | 329 | 3.2 | 6.4 | 0.00 | 0.00 | 0.00 | 45 | 1011.7 |
| 20260905215008 | 36 | 329 | 3.2 | 6.4 | 0.00 | 0.00 | 0.00 | 45 | 1011.7 |
| 20260905214759 | 36 | 329 | 3.2 | 6.4 | 0.00 | 0.00 | 0.00 | 45 | 1011.7 |
| 20260905214659 | 36 | 328 | 3.2 | 6.4 | 0.00 | 0.00 | 0.00 | 45 | 1011.7 |
| 20260905214559 | 36 | 324 | 3.2 | 8.0 | 0.00 | 0.00 | 0.00 | 45 | 1011.7 |
| 20260905214359 | 36 | 320 | 3.2 | 8.0 | 0.00 | 0.00 | 0.00 | 45 | 1011.6 |
| 20260905214259 | 36 | 319 | 3.2 | 8.0 | 0.00 | 0.00 | 0.00 | 45 | 1011.6 |
| 20260905214159 | 36 | 320 | 3.2 | 8.0 | 0.00 | 0.00 | 0.00 | 46 | 1011.6 |
| 20260905214059 | 36 | 320 | 3.2 | 8.0 | 0.00 | 0.00 | 0.00 | 46 | 1011.6 |
| 20260905213959 | 36 | 321 | 1.6 | 8.0 | 0.00 | 0.00 | 0.00 | 45 | 1011.6 |
| 20260905213758 | 36 | 321 | 3.2 | 8.0 | 0.00 | 0.00 | 0.00 | 45 | 1011.7 |
| 20260905213658 | 36 | 321 | 3.2 | 8.0 | 0.00 | 0.00 | 0.00 | 45 | 1011.6 |
| 20260905213559 | 36 | 325 | 3.2 | 8.0 | 0.00 | 0.00 | 0.00 | 45 | 1011.7 |
| 20260905213459 | 36 | 325 | 3.2 | 9.7 | 0.00 | 0.00 | 0.00 | 45 | 1011.6 |
| 20260905213359 | 36 | 325 | 3.2 | 9.7 | 0.00 | 0.00 | 0.00 | 46 | 1011.6 |
| 20260905213259 | 36 | 324 | 3.2 | 9.7 | 0.00 | 0.00 | 0.00 | 45 | 1011.7 |
| 20260905213158 | 36 | 322 | 3.2 | 9.7 | 0.00 | 0.00 | 0.00 | 45 | 1011.7 |
| 20260905213059 | 36 | 321 | 3.2 | 9.7 | 0.00 | 0.00 | 0.00 | 46 | 1011.6 |
| 20260905212859 | 36 | 323 | 3.2 | 9.7 | 0.00 | 0.00 | 0.00 | 46 | 1011.7 |
| 20260905212759 | 36 | 322 | 3.2 | 9.7 | 0.00 | 0.00 | 0.00 | 46 | 1011.7 |
| 20260905212659 | 36 | 322 | 3.2 | 9.7 | 0.00 | 0.00 | 0.00 | 46 | 1011.7 |
| 20260905212558 | 36 | 320 | 3.2 | 9.7 | 0.00 | 0.00 | 0.00 | 47 | 1011.8 |
| 20260905212500 | 36 | 320 | 3.2 | 9.7 | 0.00 | 0.00 | 0.00 | 46 | 1011.8 |
| 20260905212359 | 36 | 322 | 3.2 | 8.0 | 0.00 | 0.00 | 0.00 | 47 | 1011.8 |
| 20260905212259 | 36 | 322 | 3.2 | 8.0 | 0.00 | 0.00 | 0.00 | 46 | 1011.8 |
| 20260905212200 | 36 | 323 | 3.2 | 8.0 | 0.00 | 0.00 | 0.00 | 46 | 1011.8 |
| 20260905212059 | 36 | 325 | 3.2 | 8.0 | 0.00 | 0.00 | 0.00 | 46 | 1011.8 |
| 20260905211959 | 36 | 325 | 3.2 | 8.0 | 0.00 | 0.00 | 0.00 | 46 | 1011.8 |
| 20260905211900 | 36 | 326 | 3.2 | 8.0 | 0.00 | 0.00 | 0.00 | 46 | 1011.8 |
| 20260905211758 | 36 | 324 | 3.2 | 8.0 | 0.00 | 0.00 | 0.00 | 47 | 1011.8 |
| 20260905211658 | 36 | 322 | 3.2 | 8.0 | 0.00 | 0.00 | 0.00 | 47 | 1011.9 |
| 20260905211559 | 36 | 322 | 3.2 | 6.4 | 0.00 | 0.00 | 0.00 | 46 | 1011.9 |
| 20260905211458 | 36 | 321 | 3.2 | 8.0 | 0.00 | 0.00 | 0.00 | 46 | 1011.9 |
| 20260905211359 | 36 | 320 | 3.2 | 8.0 | 0.00 | 0.00 | 0.00 | 46 | 1011.9 |
| 20260905211259 | 36 | 319 | 3.2 | 8.0 | 0.00 | 0.00 | 0.00 | 46 | 1011.9 |
| 20260905210959 | 36 | 312 | 1.6 | 8.0 | 0.00 | 0.00 | 0.00 | 45 | 1011.9 |
| 20260905210858 | 36 | 309 | 1.6 | 8.0 | 0.00 | 0.00 | 0.00 | 44 | 1011.9 |
| 20260905210759 | 36 | 309 | 1.6 | 8.0 | 0.00 | 0.00 | 0.00 | 44 | 1011.9 |
| 20260905210659 | 36 | 309 | 1.6 | 8.0 | 0.00 | 0.00 | 0.00 | 44 | 1012.0 |
| 20260905210600 | 36 | 307 | 1.6 | 8.0 | 0.00 | 0.00 | 0.00 | 45 | 1012.0 |
| 20260905210459 | 36 | 307 | 1.6 | 3.2 | 0.00 | 0.00 | 0.00 | 45 | 1012.0 |
| 20260905210358 | 36 | 307 | 1.6 | 3.2 | 0.00 | 0.00 | 0.00 | 44 | 1012.0 |
| 20260905210259 | 36 | 309 | 1.6 | 4.8 | 0.00 | 0.00 | 0.00 | 43 | 1012.0 |
| 20260905210059 | 36 | 305 | 1.6 | 6.4 | 0.00 | 0.00 | 0.00 | 43 | 1012.0 |
| 20260905205959 | 36 | 309 | 1.6 | 8.0 | 0.00 | 0.00 | 0.00 | 43 | 1012.0 |
| 20260905205859 | 36 | 316 | 3.2 | 8.0 | 0.00 | 0.00 | 0.00 | 43 | 1012.0 |
| 20260905205759 | 36 | 320 | 3.2 | 8.0 | 0.00 | 0.00 | 0.00 | 43 | 1012.1 |
| 20260905205559 | 36 | 325 | 3.2 | 8.0 | 0.00 | 0.00 | 0.00 | 44 | 1012.1 |
| 20260905205459 | 37 | 324 | 3.2 | 8.0 | 0.00 | 0.00 | 0.00 | 44 | 1012.1 |
| 20260905205259 | 37 | 325 | 3.2 | 8.0 | 0.00 | 0.00 | 0.00 | 44 | 1012.1 |
| 20260905205159 | 37 | 328 | 3.2 | 8.0 | 0.00 | 0.00 | 0.00 | 43 | 1012.1 |
| 20260905205058 | 37 | 328 | 3.2 | 8.0 | 0.00 | 0.00 | 0.00 | 43 | 1012.1 |
| 20260905204959 | 37 | 328 | 3.2 | 8.0 | 0.00 | 0.00 | 0.00 | 43 | 1012.0 |
| 20260905204859 | 37 | 320 | 3.2 | 8.0 | 0.00 | 0.00 | 0.00 | 43 | 1012.1 |
| 20260905204759 | 37 | 319 | 3.2 | 8.0 | 0.00 | 0.00 | 0.00 | 43 | 1012.1 |
| 20260905204659 | 37 | 316 | 3.2 | 8.0 | 0.00 | 0.00 | 0.00 | 43 | 1012.1 |
| 20260905204458 | 37 | 316 | 3.2 | 8.0 | 0.00 | 0.00 | 0.00 | 42 | 1012.1 |
| 20260905204359 | 37 | 312 | 3.2 | 8.0 | 0.00 | 0.00 | 0.00 | 42 | 1012.1 |
| 20260905203959 | 37 | 305 | 3.2 | 8.0 | 0.00 | 0.00 | 0.00 | 43 | 1012.1 |
| 20260905203858 | 37 | 306 | 3.2 | 8.0 | 0.00 | 0.00 | 0.00 | 44 | 1012.1 |
| 20260905203758 | 37 | 305 | 3.2 | 8.0 | 0.00 | 0.00 | 0.00 | 42 | 1012.2 |
| 20260905203659 | 37 | 306 | 3.2 | 8.0 | 0.00 | 0.00 | 0.00 | 42 | 1012.2 |
| 20260905203559 | 37 | 306 | 3.2 | 8.0 | 0.00 | 0.00 | 0.00 | 43 | 1012.1 |
| 20260905203459 | 37 | 307 | 3.2 | 8.0 | 0.00 | 0.00 | 0.00 | 43 | 1012.2 |
| 20260905203258 | 37 | 316 | 3.2 | 6.4 | 0.00 | 0.00 | 0.00 | 42 | 1012.2 |
| 20260905203059 | 37 | 312 | 3.2 | 6.4 | 0.00 | 0.00 | 0.00 | 42 | 1012.2 |
| 20260905202858 | 37 | 312 | 3.2 | 6.4 | 0.00 | 0.00 | 0.00 | 43 | 1012.2 |
| 20260905202758 | 37 | 309 | 3.2 | 6.4 | 0.00 | 0.00 | 0.00 | 43 | 1012.2 |
| 20260905202658 | 37 | 304 | 3.2 | 6.4 | 0.00 | 0.00 | 0.00 | 43 | 1012.2 |
| 20260905202559 | 37 | 303 | 3.2 | 6.4 | 0.00 | 0.00 | 0.00 | 42 | 1012.2 |
| 20260905202459 | 37 | 303 | 3.2 | 6.4 | 0.00 | 0.00 | 0.00 | 42 | 1012.2 |
| 20260905202259 | 37 | 304 | 3.2 | 6.4 | 0.00 | 0.00 | 0.00 | 43 | 1012.2 |
| 20260905202158 | 37 | 305 | 3.2 | 6.4 | 0.00 | 0.00 | 0.00 | 43 | 1012.3 |
| 20260905202058 | 37 | 313 | 3.2 | 8.0 | 0.00 | 0.00 | 0.00 | 43 | 1012.3 |
| 20260905201959 | 37 | 314 | 3.2 | 8.0 | 0.00 | 0.00 | 0.00 | 44 | 1012.3 |
| 20260905201859 | 37 | 317 | 3.2 | 8.0 | 0.00 | 0.00 | 0.00 | 44 | 1012.4 |
| 20260905201759 | 37 | 319 | 4.8 | 8.0 | 0.00 | 0.00 | 0.00 | 43 | 1012.3 |
| 20260905201659 | 37 | 321 | 4.8 | 8.0 | 0.00 | 0.00 | 0.00 | 43 | 1012.3 |
| 20260905201558 | 37 | 320 | 4.8 | 8.0 | 0.00 | 0.00 | 0.00 | 43 | 1012.3 |
| 20260905201458 | 37 | 321 | 4.8 | 8.0 | 0.00 | 0.00 | 0.00 | 42 | 1012.3 |
| 20260905201359 | 37 | 323 | 4.8 | 8.0 | 0.00 | 0.00 | 0.00 | 42 | 1012.4 |
| 20260905201300 | 37 | 325 | 4.8 | 8.0 | 0.00 | 0.00 | 0.00 | 42 | 1012.3 |
| 20260905201159 | 37 | 324 | 4.8 | 8.0 | 0.00 | 0.00 | 0.00 | 42 | 1012.3 |
| 20260905201058 | 37 | 326 | 4.8 | 9.7 | 0.00 | 0.00 | 0.00 | 42 | 1012.3 |
| 20260905200958 | 37 | 328 | 4.8 | 9.7 | 0.00 | 0.00 | 0.00 | 42 | 1012.3 |
| 20260905200858 | 37 | 331 | 4.8 | 11.3 | 0.00 | 0.00 | 0.00 | 42 | 1012.3 |
| 20260905200759 | 37 | 335 | 4.8 | 11.3 | 0.00 | 0.00 | 0.00 | 42 | 1012.3 |
| 20260905200658 | 37 | 339 | 4.8 | 11.3 | 0.00 | 0.00 | 0.00 | 42 | 1012.3 |
| 20260905200559 | 37 | 339 | 4.8 | 11.3 | 0.00 | 0.00 | 0.00 | 42 | 1012.3 |
| 20260905200358 | 37 | 341 | 4.8 | 16.1 | 0.00 | 0.00 | 0.00 | 42 | 1012.3 |
| 20260905195759 | 37 | 333 | 3.2 | 16.1 | 0.00 | 0.00 | 0.00 | 41 | 1012.4 |
| 20260905195559 | 37 | 324 | 3.2 | 16.1 | 0.00 | 0.00 | 0.00 | 42 | 1012.5 |
| 20260905195458 | 37 | 316 | 3.2 | 9.7 | 0.00 | 0.00 | 0.00 | 43 | 1012.5 |
| 20260905195358 | 37 | 317 | 4.8 | 9.7 | 0.00 | 0.00 | 0.00 | 43 | 1012.6 |
| 20260905195259 | 37 | 318 | 4.8 | 9.7 | 0.00 | 0.00 | 0.00 | 43 | 1012.6 |
| 20260905195158 | 37 | 319 | 4.8 | 9.7 | 0.00 | 0.00 | 0.00 | 42 | 1012.6 |
| 20260905195059 | 37 | 322 | 4.8 | 9.7 | 0.00 | 0.00 | 0.00 | 41 | 1012.6 |
| 20260905194959 | 37 | 321 | 4.8 | 9.7 | 0.00 | 0.00 | 0.00 | 42 | 1012.6 |
| 20260905194858 | 37 | 321 | 4.8 | 9.7 | 0.00 | 0.00 | 0.00 | 41 | 1012.6 |
| 20260905194759 | 37 | 321 | 4.8 | 11.3 | 0.00 | 0.00 | 0.00 | 41 | 1012.7 |
| 20260905194659 | 37 | 323 | 4.8 | 11.3 | 0.00 | 0.00 | 0.00 | 43 | 1012.7 |
| 20260905194558 | 37 | 323 | 4.8 | 11.3 | 0.00 | 0.00 | 0.00 | 41 | 1012.7 |
| 20260905194459 | 37 | 323 | 4.8 | 11.3 | 0.00 | 0.00 | 0.00 | 41 | 1012.7 |
| 20260905194358 | 37 | 324 | 4.8 | 11.3 | 0.00 | 0.00 | 0.00 | 42 | 1012.7 |
| 20260905194159 | 37 | 323 | 4.8 | 11.3 | 0.00 | 0.00 | 0.00 | 42 | 1012.7 |
| 20260905194059 | 37 | 324 | 4.8 | 11.3 | 0.00 | 0.00 | 0.00 | 42 | 1012.7 |
| 20260905193958 | 37 | 325 | 4.8 | 11.3 | 0.00 | 0.00 | 0.00 | 43 | 1012.7 |
| 20260905193858 | 37 | 324 | 4.8 | 11.3 | 0.00 | 0.00 | 0.00 | 41 | 1012.7 |
| 20260905193758 | 37 | 325 | 3.2 | 11.3 | 0.00 | 0.00 | 0.00 | 41 | 1012.7 |
| 20260905193659 | 37 | 326 | 3.2 | 9.7 | 0.00 | 0.00 | 0.00 | 43 | 1012.7 |
| 20260905193558 | 37 | 327 | 3.2 | 9.7 | 0.00 | 0.00 | 0.00 | 41 | 1012.7 |
| 20260905193358 | 37 | 325 | 3.2 | 8.0 | 0.00 | 0.00 | 0.00 | 44 | 1012.7 |
| 20260905193258 | 37 | 332 | 4.8 | 19.3 | 0.00 | 0.00 | 0.00 | 41 | 1012.7 |
| 20260905193159 | 37 | 332 | 4.8 | 19.3 | 0.00 | 0.00 | 0.00 | 41 | 1012.8 |
| 20260905192959 | 37 | 327 | 3.2 | 19.3 | 0.00 | 0.00 | 0.00 | 41 | 1012.8 |
| 20260905192858 | 37 | 329 | 3.2 | 19.3 | 0.00 | 0.00 | 0.00 | 41 | 1012.9 |
| 20260905192758 | 37 | 328 | 3.2 | 19.3 | 0.00 | 0.00 | 0.00 | 41 | 1012.9 |
| 20260905192558 | 37 | 324 | 3.2 | 19.3 | 0.00 | 0.00 | 0.00 | 41 | 1012.9 |
| 20260905192458 | 37 | 323 | 3.2 | 19.3 | 0.00 | 0.00 | 0.00 | 42 | 1012.9 |
| 20260905192157 | 37 | 316 | 3.2 | 11.3 | 0.00 | 0.00 | 0.00 | 41 | 1012.9 |
| 20260905192058 | 37 | 321 | 3.2 | 11.3 | 0.00 | 0.00 | 0.00 | 41 | 1012.9 |
| 20260905191958 | 37 | 329 | 3.2 | 11.3 | 0.00 | 0.00 | 0.00 | 41 | 1012.9 |
| 20260905191858 | 37 | 326 | 4.8 | 11.3 | 0.00 | 0.00 | 0.00 | 41 | 1013.0 |
| 20260905191758 | 37 | 327 | 4.8 | 11.3 | 0.00 | 0.00 | 0.00 | 41 | 1013.0 |
| 20260905191658 | 37 | 328 | 4.8 | 11.3 | 0.00 | 0.00 | 0.00 | 40 | 1013.0 |
| 20260905191558 | 37 | 329 | 4.8 | 11.3 | 0.00 | 0.00 | 0.00 | 40 | 1013.0 |
| 20260905191358 | 37 | 333 | 3.2 | 11.3 | 0.00 | 0.00 | 0.00 | 44 | 1013.1 |
| 20260905191258 | 37 | 336 | 3.2 | 8.0 | 0.00 | 0.00 | 0.00 | 44 | 1013.0 |
| 20260905191158 | 37 | 335 | 3.2 | 8.0 | 0.00 | 0.00 | 0.00 | 45 | 1013.1 |
| 20260905191058 | 37 | 328 | 3.2 | 6.4 | 0.00 | 0.00 | 0.00 | 44 | 1013.0 |
| 20260905190958 | 37 | 320 | 3.2 | 6.4 | 0.00 | 0.00 | 0.00 | 44 | 1013.0 |
| 20260905190858 | 37 | 319 | 3.2 | 6.4 | 0.00 | 0.00 | 0.00 | 45 | 1013.0 |
| 20260905190758 | 37 | 314 | 3.2 | 6.4 | 0.00 | 0.00 | 0.00 | 42 | 1013.1 |
| 20260905190658 | 38 | 318 | 3.2 | 6.4 | 0.00 | 0.00 | 0.00 | 42 | 1013.0 |
| 20260905190558 | 38 | 316 | 3.2 | 6.4 | 0.00 | 0.00 | 0.00 | 42 | 1013.1 |
| 20260905190458 | 38 | 317 | 3.2 | 6.4 | 0.00 | 0.00 | 0.00 | 45 | 1013.1 |
| 20260905190358 | 37 | 322 | 3.2 | 8.0 | 0.00 | 0.00 | 0.00 | 43 | 1013.1 |
| 20260905190257 | 38 | 324 | 3.2 | 8.0 | 0.00 | 0.00 | 0.00 | 43 | 1013.2 |
| 20260905190158 | 37 | 322 | 3.2 | 8.0 | 0.00 | 0.00 | 0.00 | 43 | 1013.2 |
| 20260905190059 | 37 | 324 | 3.2 | 8.0 | 0.00 | 0.00 | 0.00 | 43 | 1013.1 |
| 20260905185959 | 37 | 330 | 3.2 | 8.0 | 0.00 | 0.00 | 0.00 | 44 | 1013.2 |
| 20260905185858 | 37 | 331 | 3.2 | 8.0 | 0.00 | 0.00 | 0.00 | 42 | 1013.2 |
| 20260905185757 | 37 | 334 | 3.2 | 8.0 | 0.00 | 0.00 | 0.00 | 43 | 1013.2 |
| 20260905185657 | 37 | 333 | 3.2 | 8.0 | 0.00 | 0.00 | 0.00 | 45 | 1013.2 |
| 20260905185458 | 37 | 334 | 3.2 | 8.0 | 0.00 | 0.00 | 0.00 | 44 | 1013.2 |
| 20260905185358 | 37 | 330 | 3.2 | 8.0 | 0.00 | 0.00 | 0.00 | 45 | 1013.2 |
| 20260905185258 | 37 | 329 | 3.2 | 8.0 | 0.00 | 0.00 | 0.00 | 45 | 1013.2 |
| 20260905185157 | 37 | 329 | 3.2 | 8.0 | 0.00 | 0.00 | 0.00 | 44 | 1013.2 |
| 20260905185057 | 37 | 329 | 3.2 | 8.0 | 0.00 | 0.00 | 0.00 | 43 | 1013.2 |
| 20260905184958 | 37 | 325 | 3.2 | 8.0 | 0.00 | 0.00 | 0.00 | 45 | 1013.2 |
| 20260905184858 | 37 | 325 | 4.8 | 11.3 | 0.00 | 0.00 | 0.00 | 45 | 1013.2 |
| 20260905184759 | 37 | 326 | 4.8 | 11.3 | 0.00 | 0.00 | 0.00 | 45 | 1013.3 |
| 20260905184658 | 37 | 327 | 4.8 | 11.3 | 0.00 | 0.00 | 0.00 | 44 | 1013.3 |
| 20260905184458 | 37 | 331 | 4.8 | 11.3 | 0.00 | 0.00 | 0.00 | 44 | 1013.3 |
| 20260905184358 | 37 | 332 | 4.8 | 11.3 | 0.00 | 0.00 | 0.00 | 45 | 1013.3 |
| 20260905184258 | 37 | 333 | 4.8 | 11.3 | 0.00 | 0.00 | 0.00 | 45 | 1013.3 |
| 20260905184200 | 37 | 337 | 4.8 | 11.3 | 0.00 | 0.00 | 0.00 | 45 | 1013.3 |
| 20260905184058 | 37 | 340 | 3.2 | 11.3 | 0.00 | 0.00 | 0.00 | 45 | 1013.3 |
| 20260905183958 | 37 | 344 | 3.2 | 11.3 | 0.00 | 0.00 | 0.00 | 46 | 1013.4 |
| 20260905183858 | 37 | 344 | 3.2 | 11.3 | 0.00 | 0.00 | 0.00 | 46 | 1013.4 |
| 20260905183758 | 37 | 347 | 3.2 | 8.0 | 0.00 | 0.00 | 0.00 | 46 | 1013.4 |
| 20260905183657 | 37 | 351 | 3.2 | 8.0 | 0.00 | 0.00 | 0.00 | 46 | 1013.4 |
| 20260905183558 | 37 | 345 | 3.2 | 8.0 | 0.00 | 0.00 | 0.00 | 46 | 1013.3 |
| 20260905183458 | 37 | 341 | 3.2 | 8.0 | 0.00 | 0.00 | 0.00 | 46 | 1013.4 |
| 20260905183358 | 37 | 339 | 3.2 | 8.0 | 0.00 | 0.00 | 0.00 | 46 | 1013.5 |
| 20260905183257 | 37 | 338 | 3.2 | 8.0 | 0.00 | 0.00 | 0.00 | 48 | 1013.5 |
| 20260905183058 | 37 | 326 | 3.2 | 8.0 | 0.00 | 0.00 | 0.00 | 47 | 1013.5 |
| 20260905182958 | 37 | 320 | 3.2 | 6.4 | 0.00 | 0.00 | 0.00 | 47 | 1013.5 |
| 20260905182859 | 36 | 325 | 3.2 | 6.4 | 0.00 | 0.00 | 0.00 | 48 | 1013.5 |
| 20260905182657 | 36 | 323 | 3.2 | 6.4 | 0.00 | 0.00 | 0.00 | 47 | 1013.6 |
| 20260905182458 | 36 | 322 | 3.2 | 6.4 | 0.00 | 0.00 | 0.00 | 47 | 1013.6 |
| 20260905182359 | 36 | 326 | 3.2 | 6.4 | 0.00 | 0.00 | 0.00 | 47 | 1013.6 |
| 20260905182258 | 36 | 323 | 3.2 | 6.4 | 0.00 | 0.00 | 0.00 | 46 | 1013.6 |
| 20260905182157 | 37 | 327 | 3.2 | 6.4 | 0.00 | 0.00 | 0.00 | 45 | 1013.7 |
| 20260905182057 | 37 | 329 | 3.2 | 4.8 | 0.00 | 0.00 | 0.00 | 49 | 1013.6 |
| 20260905181958 | 37 | 331 | 1.6 | 4.8 | 0.00 | 0.00 | 0.00 | 47 | 1013.7 |
| 20260905181858 | 37 | 327 | 3.2 | 4.8 | 0.00 | 0.00 | 0.00 | 46 | 1013.7 |
| 20260905181658 | 37 | 326 | 3.2 | 6.4 | 0.00 | 0.00 | 0.00 | 48 | 1013.8 |
| 20260905181558 | 36 | 336 | 3.2 | 8.0 | 0.00 | 0.00 | 0.00 | 48 | 1013.7 |
| 20260905181358 | 36 | 349 | 3.2 | 9.7 | 0.00 | 0.00 | 0.00 | 47 | 1013.7 |
| 20260905181157 | 36 | 347 | 3.2 | 9.7 | 0.00 | 0.00 | 0.00 | 48 | 1013.7 |
| 20260905181057 | 36 | 346 | 3.2 | 9.7 | 0.00 | 0.00 | 0.00 | 48 | 1013.7 |
| 20260905180957 | 36 | 344 | 3.2 | 9.7 | 0.00 | 0.00 | 0.00 | 48 | 1013.7 |
| 20260905180758 | 36 | 345 | 1.6 | 9.7 | 0.00 | 0.00 | 0.00 | 50 | 1013.7 |
| 20260905180658 | 36 | 351 | 1.6 | 9.7 | 0.00 | 0.00 | 0.00 | 47 | 1013.7 |
| 20260905180458 | 35 | 319 | 1.6 | 6.4 | 0.00 | 0.00 | 0.00 | 49 | 1013.7 |
| 20260905180357 | 35 | 311 | 1.6 | 6.4 | 0.00 | 0.00 | 0.00 | 49 | 1013.7 |
| 20260905180158 | 36 | 308 | 1.6 | 6.4 | 0.00 | 0.00 | 0.00 | 50 | 1013.7 |
| 20260905175958 | 35 | 314 | 1.6 | 4.8 | 0.00 | 0.00 | 0.00 | 51 | 1013.7 |
| 20260905175858 | 35 | 321 | 1.6 | 4.8 | 0.00 | 0.00 | 0.00 | 50 | 1013.7 |
| 20260905175758 | 35 | 322 | 1.6 | 4.8 | 0.00 | 0.00 | 0.00 | 50 | 1013.7 |
| 20260905175557 | 35 | 321 | 1.6 | 4.8 | 0.00 | 0.00 | 0.00 | 49 | 1013.7 |
| 20260905175457 | 36 | 317 | 3.2 | 8.0 | 0.00 | 0.00 | 0.00 | 49 | 1013.7 |
| 20260905175358 | 36 | 316 | 3.2 | 9.7 | 0.00 | 0.00 | 0.00 | 47 | 1013.7 |
| 20260905175057 | 36 | 324 | 1.6 | 9.7 | 0.00 | 0.00 | 0.00 | 50 | 1013.7 |
| 20260905174758 | 36 | 342 | 3.2 | 9.7 | 0.00 | 0.00 | 0.00 | 50 | 1013.7 |
| 20260905174658 | 36 | 349 | 3.2 | 9.7 | 0.00 | 0.00 | 0.00 | 51 | 1013.7 |
| 20260905174357 | 36 | 1 | 3.2 | 8.0 | 0.00 | 0.00 | 0.00 | 53 | 1013.7 |
| 20260905174058 | 36 | 355 | 3.2 | 8.0 | 0.00 | 0.00 | 0.00 | 49 | 1013.8 |
| 20260905173959 | 36 | 353 | 3.2 | 8.0 | 0.00 | 0.00 | 0.00 | 49 | 1013.7 |
| 20260905173857 | 36 | 350 | 3.2 | 8.0 | 0.00 | 0.00 | 0.00 | 49 | 1013.7 |
| 20260905173757 | 36 | 340 | 1.6 | 8.0 | 0.00 | 0.00 | 0.00 | 50 | 1013.7 |
| 20260905173657 | 36 | 328 | 1.6 | 6.4 | 0.00 | 0.00 | 0.00 | 50 | 1013.7 |
| 20260905173558 | 36 | 318 | 1.6 | 6.4 | 0.00 | 0.00 | 0.00 | 49 | 1013.7 |
| 20260905173457 | 35 | 316 | 1.6 | 6.4 | 0.00 | 0.00 | 0.00 | 49 | 1013.7 |
| 20260905173357 | 35 | 302 | 1.6 | 4.8 | 0.00 | 0.00 | 0.00 | 51 | 1013.7 |
| 20260905173257 | 35 | 287 | 1.6 | 4.8 | 0.00 | 0.00 | 0.00 | 52 | 1013.7 |
| 20260905173157 | 35 | 270 | 1.6 | 4.8 | 0.00 | 0.00 | 0.00 | 52 | 1013.7 |
| 20260905173058 | 35 | 252 | 1.6 | 4.8 | 0.00 | 0.00 | 0.00 | 52 | 1013.7 |
| 20260905172857 | 35 | 247 | 1.6 | 6.4 | 0.00 | 0.00 | 0.00 | 53 | 1013.8 |
| 20260905172757 | 35 | 247 | 1.6 | 6.4 | 0.00 | 0.00 | 0.00 | 53 | 1013.8 |
| 20260905172657 | 35 | 250 | 1.6 | 6.4 | 0.00 | 0.00 | 0.00 | 53 | 1013.7 |
| 20260905172557 | 35 | 245 | 1.6 | 6.4 | 0.00 | 0.00 | 0.00 | 52 | 1013.8 |
| 20260905172457 | 35 | 251 | 1.6 | 6.4 | 0.00 | 0.00 | 0.00 | 51 | 1013.7 |
| 20260905172358 | 35 | 258 | 1.6 | 6.4 | 0.00 | 0.00 | 0.00 | 52 | 1013.8 |
| 20260905172257 | 35 | 273 | 1.6 | 6.4 | 0.00 | 0.00 | 0.00 | 52 | 1013.8 |
| 20260905172157 | 35 | 282 | 1.6 | 6.4 | 0.00 | 0.00 | 0.00 | 52 | 1013.8 |
| 20260905172057 | 35 | 296 | 1.6 | 6.4 | 0.00 | 0.00 | 0.00 | 54 | 1013.8 |
| 20260905171958 | 35 | 301 | 1.6 | 6.4 | 0.00 | 0.00 | 0.00 | 52 | 1013.8 |
| 20260905171858 | 35 | 310 | 1.6 | 4.8 | 0.00 | 0.00 | 0.00 | 53 | 1013.8 |
| 20260905171757 | 35 | 311 | 1.6 | 4.8 | 0.00 | 0.00 | 0.00 | 52 | 1013.8 |
| 20260905171657 | 35 | 312 | 1.6 | 4.8 | 0.00 | 0.00 | 0.00 | 52 | 1013.8 |
| 20260905171558 | 35 | 320 | 1.6 | 4.8 | 0.00 | 0.00 | 0.00 | 52 | 1013.8 |
| 20260905171458 | 35 | 323 | 1.6 | 4.8 | 0.00 | 0.00 | 0.00 | 52 | 1013.8 |
| 20260905171357 | 35 | 317 | 1.6 | 4.8 | 0.00 | 0.00 | 0.00 | 51 | 1013.7 |
| 20260905171257 | 35 | 303 | 1.6 | 3.2 | 0.00 | 0.00 | 0.00 | 51 | 1013.8 |
| 20260905171158 | 35 | 288 | 1.6 | 3.2 | 0.00 | 0.00 | 0.00 | 53 | 1013.8 |
| 20260905171057 | 35 | 260 | 1.6 | 3.2 | 0.00 | 0.00 | 0.00 | 53 | 1013.8 |
| 20260905170958 | 36 | 240 | 1.6 | 3.2 | 0.00 | 0.00 | 0.00 | 51 | 1013.9 |
| 20260905170657 | 35 | 211 | 1.6 | 3.2 | 0.00 | 0.00 | 0.00 | 55 | 1013.9 |
| 20260905170605 | 35 | 205 | 1.6 | 3.2 | 0.00 | 0.00 | 0.00 | 55 | 1013.9 |
| 20260905170357 | 35 | 203 | 1.6 | 3.2 | 0.00 | 0.00 | 0.00 | 52 | 1013.9 |
| 20260905170158 | 35 | 234 | 1.6 | 3.2 | 0.00 | 0.00 | 0.00 | 52 | 1014.0 |
| 20260905170058 | 35 | 248 | 1.6 | 3.2 | 0.00 | 0.00 | 0.00 | 54 | 1014.0 |
| 20260905165958 | 35 | 252 | 1.6 | 3.2 | 0.00 | 0.00 | 0.00 | 55 | 1014.1 |
| 20260905165857 | 35 | 255 | 1.6 | 3.2 | 0.00 | 0.00 | 0.00 | 56 | 1014.2 |
| 20260905165557 | 34 | 263 | 1.6 | 4.8 | 0.00 | 0.00 | 0.00 | 54 | 1014.1 |
| 20260905165458 | 34 | 262 | 1.6 | 4.8 | 0.00 | 0.00 | 0.00 | 56 | 1014.2 |
| 20260905165357 | 34 | 260 | 1.6 | 4.8 | 0.00 | 0.00 | 0.00 | 54 | 1014.2 |
| 20260905165257 | 34 | 256 | 1.6 | 4.8 | 0.00 | 0.00 | 0.00 | 54 | 1014.2 |
| 20260905165158 | 34 | 257 | 1.6 | 4.8 | 0.00 | 0.00 | 0.00 | 54 | 1014.3 |
| 20260905165058 | 34 | 262 | 1.6 | 4.8 | 0.00 | 0.00 | 0.00 | 54 | 1014.3 |
| 20260905164957 | 34 | 262 | 1.6 | 4.8 | 0.00 | 0.00 | 0.00 | 55 | 1014.3 |
| 20260905164757 | 34 | 291 | 1.6 | 4.8 | 0.00 | 0.00 | 0.00 | 55 | 1014.3 |
| 20260905164557 | 34 | 322 | 1.6 | 4.8 | 0.00 | 0.00 | 0.00 | 54 | 1014.3 |
| 20260905164457 | 34 | 329 | 1.6 | 4.8 | 0.00 | 0.00 | 0.00 | 57 | 1014.2 |
| 20260905164357 | 34 | 340 | 1.6 | 4.8 | 0.00 | 0.00 | 0.00 | 53 | 1014.2 |
| 20260905164157 | 34 | 310 | 1.6 | 4.8 | 0.00 | 0.00 | 0.00 | 53 | 1014.3 |
| 20260905164057 | 34 | 296 | 1.6 | 4.8 | 0.00 | 0.00 | 0.00 | 53 | 1014.3 |
| 20260905163957 | 34 | 289 | 1.6 | 4.8 | 0.00 | 0.00 | 0.00 | 56 | 1014.3 |
| 20260905163757 | 33 | 275 | 1.6 | 4.8 | 0.00 | 0.00 | 0.00 | 56 | 1014.3 |
| 20260905163658 | 33 | 278 | 1.6 | 4.8 | 0.00 | 0.00 | 0.00 | 54 | 1014.3 |
| 20260905163557 | 33 | 280 | 1.6 | 4.8 | 0.00 | 0.00 | 0.00 | 54 | 1014.3 |
| 20260905163457 | 33 | 279 | 1.6 | 4.8 | 0.00 | 0.00 | 0.00 | 54 | 1014.3 |
| 20260905163357 | 34 | 287 | 1.6 | 4.8 | 0.00 | 0.00 | 0.00 | 54 | 1014.3 |
| 20260905163257 | 34 | 281 | 1.6 | 4.8 | 0.00 | 0.00 | 0.00 | 55 | 1014.3 |
| 20260905163057 | 33 | 305 | 1.6 | 4.8 | 0.00 | 0.00 | 0.00 | 55 | 1014.3 |
| 20260905163000 | 33 | 317 | 1.6 | 4.8 | 0.00 | 0.00 | 0.00 | 57 | 1014.3 |
| 20260905162856 | 33 | 316 | 1.6 | 6.4 | 0.00 | 0.00 | 0.00 | 57 | 1014.3 |
| 20260905162657 | 33 | 318 | 1.6 | 6.4 | 0.00 | 0.00 | 0.00 | 57 | 1014.3 |
| 20260905162558 | 33 | 328 | 1.6 | 6.4 | 0.00 | 0.00 | 0.00 | 56 | 1014.3 |
| 20260905162457 | 33 | 339 | 1.6 | 6.4 | 0.00 | 0.00 | 0.00 | 56 | 1014.3 |
| 20260905162357 | 33 | 341 | 3.2 | 6.4 | 0.00 | 0.00 | 0.00 | 55 | 1014.3 |
| 20260905162157 | 33 | 330 | 3.2 | 6.4 | 0.00 | 0.00 | 0.00 | 56 | 1014.4 |
| 20260905162057 | 33 | 329 | 3.2 | 6.4 | 0.00 | 0.00 | 0.00 | 57 | 1014.4 |
| 20260905161858 | 33 | 336 | 3.2 | 4.8 | 0.00 | 0.00 | 0.00 | 57 | 1014.5 |
| 20260905161657 | 33 | 331 | 3.2 | 4.8 | 0.00 | 0.00 | 0.00 | 56 | 1014.5 |
| 20260905161556 | 33 | 319 | 1.6 | 4.8 | 0.00 | 0.00 | 0.00 | 58 | 1014.5 |
| 20260905161358 | 33 | 305 | 1.6 | 4.8 | 0.00 | 0.00 | 0.00 | 57 | 1014.6 |
| 20260905161257 | 33 | 308 | 1.6 | 4.8 | 0.00 | 0.00 | 0.00 | 57 | 1014.6 |
| 20260905161157 | 33 | 312 | 1.6 | 4.8 | 0.00 | 0.00 | 0.00 | 57 | 1014.6 |
| 20260905160957 | 33 | 314 | 1.6 | 4.8 | 0.00 | 0.00 | 0.00 | 56 | 1014.6 |
| 20260905160856 | 33 | 314 | 1.6 | 4.8 | 0.00 | 0.00 | 0.00 | 58 | 1014.6 |
| 20260905160757 | 33 | 314 | 1.6 | 4.8 | 0.00 | 0.00 | 0.00 | 56 | 1014.7 |
| 20260905160557 | 33 | 318 | 1.6 | 4.8 | 0.00 | 0.00 | 0.00 | 57 | 1014.6 |
| 20260905160457 | 33 | 317 | 1.6 | 4.8 | 0.00 | 0.00 | 0.00 | 57 | 1014.6 |
| 20260905160357 | 33 | 314 | 1.6 | 4.8 | 0.00 | 0.00 | 0.00 | 57 | 1014.5 |
| 20260905160256 | 33 | 317 | 1.6 | 4.8 | 0.00 | 0.00 | 0.00 | 59 | 1014.5 |
| 20260905160156 | 32 | 317 | 1.6 | 3.2 | 0.00 | 0.00 | 0.00 | 56 | 1014.5 |
| 20260905155957 | 32 | 309 | 1.6 | 3.2 | 0.00 | 0.00 | 0.00 | 57 | 1014.5 |
| 20260905155857 | 32 | 306 | 1.6 | 3.2 | 0.00 | 0.00 | 0.00 | 59 | 1014.5 |
| 20260905155756 | 32 | 308 | 1.6 | 3.2 | 0.00 | 0.00 | 0.00 | 57 | 1014.5 |
| 20260905155656 | 32 | 309 | 1.6 | 3.2 | 0.00 | 0.00 | 0.00 | 57 | 1014.5 |
| 20260905155556 | 32 | 309 | 1.6 | 3.2 | 0.00 | 0.00 | 0.00 | 57 | 1014.5 |
| 20260905155456 | 32 | 313 | 1.6 | 3.2 | 0.00 | 0.00 | 0.00 | 56 | 1014.6 |
| 20260905155358 | 32 | 314 | 1.6 | 3.2 | 0.00 | 0.00 | 0.00 | 57 | 1014.6 |
| 20260905155158 | 32 | 319 | 1.6 | 4.8 | 0.00 | 0.00 | 0.00 | 57 | 1014.6 |
| 20260905155057 | 32 | 316 | 1.6 | 4.8 | 0.00 | 0.00 | 0.00 | 56 | 1014.6 |
| 20260905154956 | 32 | 317 | 1.6 | 4.8 | 0.00 | 0.00 | 0.00 | 57 | 1014.5 |
| 20260905154856 | 32 | 317 | 1.6 | 4.8 | 0.00 | 0.00 | 0.00 | 57 | 1014.6 |
| 20260905154757 | 32 | 315 | 1.6 | 4.8 | 0.00 | 0.00 | 0.00 | 56 | 1014.6 |
| 20260905154657 | 32 | 315 | 1.6 | 4.8 | 0.00 | 0.00 | 0.00 | 58 | 1014.6 |
| 20260905154557 | 32 | 315 | 1.6 | 4.8 | 0.00 | 0.00 | 0.00 | 58 | 1014.6 |
| 20260905154357 | 32 | 310 | 1.6 | 4.8 | 0.00 | 0.00 | 0.00 | 58 | 1014.7 |
| 20260905154256 | 32 | 309 | 1.6 | 4.8 | 0.00 | 0.00 | 0.00 | 57 | 1014.7 |
| 20260905154157 | 32 | 303 | 1.6 | 4.8 | 0.00 | 0.00 | 0.00 | 57 | 1014.7 |
| 20260905154058 | 32 | 305 | 1.6 | 4.8 | 0.00 | 0.00 | 0.00 | 56 | 1014.8 |
| 20260905153957 | 32 | 306 | 1.6 | 4.8 | 0.00 | 0.00 | 0.00 | 57 | 1014.7 |
| 20260905153856 | 32 | 307 | 1.6 | 4.8 | 0.00 | 0.00 | 0.00 | 59 | 1014.7 |
| 20260905153756 | 32 | 308 | 1.6 | 4.8 | 0.00 | 0.00 | 0.00 | 59 | 1014.8 |
| 20260905153556 | 32 | 309 | 1.6 | 4.8 | 0.00 | 0.00 | 0.00 | 58 | 1014.7 |
| 20260905153357 | 32 | 312 | 1.6 | 4.8 | 0.00 | 0.00 | 0.00 | 58 | 1014.8 |
| 20260905153257 | 32 | 312 | 1.6 | 4.8 | 0.00 | 0.00 | 0.00 | 58 | 1014.8 |
| 20260905153158 | 32 | 313 | 1.6 | 4.8 | 0.00 | 0.00 | 0.00 | 57 | 1014.7 |
| 20260905153057 | 32 | 316 | 1.6 | 4.8 | 0.00 | 0.00 | 0.00 | 59 | 1014.8 |
| 20260905152856 | 32 | 315 | 1.6 | 4.8 | 0.00 | 0.00 | 0.00 | 59 | 1014.7 |
| 20260905152756 | 32 | 313 | 1.6 | 6.4 | 0.00 | 0.00 | 0.00 | 58 | 1014.8 |
| 20260905152657 | 32 | 312 | 1.6 | 6.4 | 0.00 | 0.00 | 0.00 | 58 | 1014.8 |
| 20260905152557 | 32 | 309 | 1.6 | 6.4 | 0.00 | 0.00 | 0.00 | 58 | 1014.7 |
| 20260905152457 | 32 | 309 | 1.6 | 6.4 | 0.00 | 0.00 | 0.00 | 58 | 1014.7 |
| 20260905152256 | 32 | 309 | 1.6 | 6.4 | 0.00 | 0.00 | 0.00 | 58 | 1014.7 |
| 20260905152156 | 32 | 309 | 1.6 | 6.4 | 0.00 | 0.00 | 0.00 | 57 | 1014.8 |
| 20260905152056 | 32 | 299 | 3.2 | 6.4 | 0.00 | 0.00 | 0.00 | 58 | 1014.7 |
| 20260905151957 | 32 | 303 | 3.2 | 6.4 | 0.00 | 0.00 | 0.00 | 59 | 1014.8 |
| 20260905151856 | 32 | 304 | 1.6 | 6.4 | 0.00 | 0.00 | 0.00 | 59 | 1014.7 |
| 20260905151757 | 32 | 305 | 1.6 | 6.4 | 0.00 | 0.00 | 0.00 | 60 | 1014.7 |
| 20260905151657 | 32 | 308 | 1.6 | 6.4 | 0.00 | 0.00 | 0.00 | 60 | 1014.7 |
| 20260905151557 | 31 | 311 | 3.2 | 6.4 | 0.00 | 0.00 | 0.00 | 61 | 1014.7 |
| 20260905151456 | 31 | 311 | 3.2 | 6.4 | 0.00 | 0.00 | 0.00 | 60 | 1014.8 |
| 20260905151356 | 31 | 313 | 3.2 | 6.4 | 0.00 | 0.00 | 0.00 | 59 | 1014.8 |
| 20260905151156 | 32 | 313 | 3.2 | 6.4 | 0.00 | 0.00 | 0.00 | 59 | 1014.7 |
| 20260905151056 | 31 | 320 | 3.2 | 6.4 | 0.00 | 0.00 | 0.00 | 60 | 1014.7 |
| 20260905150957 | 31 | 317 | 1.6 | 6.4 | 0.00 | 0.00 | 0.00 | 61 | 1014.7 |
| 20260905150857 | 31 | 313 | 1.6 | 4.8 | 0.00 | 0.00 | 0.00 | 61 | 1014.8 |
| 20260905150757 | 31 | 314 | 1.6 | 4.8 | 0.00 | 0.00 | 0.00 | 60 | 1014.7 |
| 20260905150656 | 31 | 312 | 1.6 | 4.8 | 0.00 | 0.00 | 0.00 | 62 | 1014.7 |
| 20260905150556 | 31 | 312 | 1.6 | 4.8 | 0.00 | 0.00 | 0.00 | 62 | 1014.8 |
| 20260905150456 | 31 | 315 | 1.6 | 6.4 | 0.00 | 0.00 | 0.00 | 61 | 1014.8 |
| 20260905150356 | 31 | 315 | 1.6 | 6.4 | 0.00 | 0.00 | 0.00 | 61 | 1014.8 |
| 20260905150257 | 31 | 317 | 1.6 | 6.4 | 0.00 | 0.00 | 0.00 | 61 | 1014.8 |
| 20260905150157 | 31 | 318 | 3.2 | 6.4 | 0.00 | 0.00 | 0.00 | 61 | 1014.7 |
| 20260905145956 | 31 | 320 | 1.6 | 6.4 | 0.00 | 0.00 | 0.00 | 63 | 1014.7 |
| 20260905145856 | 31 | 323 | 1.6 | 6.4 | 0.00 | 0.00 | 0.00 | 62 | 1014.7 |
| 20260905145757 | 31 | 323 | 1.6 | 6.4 | 0.00 | 0.00 | 0.00 | 62 | 1014.7 |
| 20260905145556 | 31 | 324 | 1.6 | 6.4 | 0.00 | 0.00 | 0.00 | 62 | 1014.7 |
| 20260905145456 | 31 | 323 | 1.6 | 6.4 | 0.00 | 0.00 | 0.00 | 63 | 1014.7 |
| 20260905145356 | 31 | 323 | 1.6 | 6.4 | 0.00 | 0.00 | 0.00 | 62 | 1014.7 |
| 20260905145156 | 31 | 321 | 1.6 | 6.4 | 0.00 | 0.00 | 0.00 | 66 | 1014.7 |
| 20260905145057 | 31 | 319 | 1.6 | 4.8 | 0.00 | 0.00 | 0.00 | 66 | 1014.7 |
| 20260905144958 | 31 | 313 | 1.6 | 4.8 | 0.00 | 0.00 | 0.00 | 65 | 1014.7 |
| 20260905144856 | 31 | 303 | 1.6 | 4.8 | 0.00 | 0.00 | 0.00 | 66 | 1014.7 |
| 20260905144756 | 30 | 299 | 1.6 | 4.8 | 0.00 | 0.00 | 0.00 | 66 | 1014.6 |
| 20260905144656 | 30 | 292 | 1.6 | 4.8 | 0.00 | 0.00 | 0.00 | 67 | 1014.6 |
| 20260905144556 | 30 | 291 | 1.6 | 4.8 | 0.00 | 0.00 | 0.00 | 66 | 1014.6 |
| 20260905144457 | 30 | 287 | 1.6 | 4.8 | 0.00 | 0.00 | 0.00 | 66 | 1014.6 |
| 20260905144356 | 30 | 291 | 1.6 | 4.8 | 0.00 | 0.00 | 0.00 | 65 | 1014.6 |
| 20260905144256 | 30 | 290 | 1.6 | 4.8 | 0.00 | 0.00 | 0.00 | 65 | 1014.6 |
| 20260905144156 | 30 | 289 | 1.6 | 4.8 | 0.00 | 0.00 | 0.00 | 65 | 1014.6 |
| 20260905144056 | 30 | 289 | 1.6 | 4.8 | 0.00 | 0.00 | 0.00 | 66 | 1014.7 |
| 20260905143956 | 30 | 294 | 1.6 | 3.2 | 0.00 | 0.00 | 0.00 | 66 | 1014.7 |
| 20260905143857 | 30 | 303 | 1.6 | 3.2 | 0.00 | 0.00 | 0.00 | 66 | 1014.7 |
| 20260905143756 | 30 | 307 | 1.6 | 3.2 | 0.00 | 0.00 | 0.00 | 66 | 1014.7 |
| 20260905143656 | 30 | 306 | 1.6 | 3.2 | 0.00 | 0.00 | 0.00 | 66 | 1014.7 |
| 20260905143556 | 30 | 305 | 1.6 | 3.2 | 0.00 | 0.00 | 0.00 | 67 | 1014.7 |
| 20260905143456 | 30 | 303 | 1.6 | 3.2 | 0.00 | 0.00 | 0.00 | 66 | 1014.7 |
| 20260905143358 | 30 | 301 | 0.0 | 3.2 | 0.00 | 0.00 | 0.00 | 67 | 1014.7 |
| 20260905143257 | 30 | 300 | 0.0 | 3.2 | 0.00 | 0.00 | 0.00 | 66 | 1014.6 |
| 20260905143156 | 30 | 297 | 0.0 | 3.2 | 0.00 | 0.00 | 0.00 | 66 | 1014.6 |
| 20260905143056 | 30 | 290 | 0.0 | 3.2 | 0.00 | 0.00 | 0.00 | 66 | 1014.6 |
| 20260905142956 | 30 | 288 | 0.0 | 4.8 | 0.00 | 0.00 | 0.00 | 67 | 1014.6 |
| 20260905142855 | 30 | 287 | 0.0 | 4.8 | 0.00 | 0.00 | 0.00 | 67 | 1014.6 |
| 20260905142656 | 30 | 288 | 1.6 | 4.8 | 0.00 | 0.00 | 0.00 | 66 | 1014.7 |
| 20260905142556 | 30 | 288 | 1.6 | 4.8 | 0.00 | 0.00 | 0.00 | 67 | 1014.7 |
| 20260905142456 | 30 | 280 | 1.6 | 4.8 | 0.00 | 0.00 | 0.00 | 68 | 1014.7 |
| 20260905142356 | 30 | 279 | 1.6 | 4.8 | 0.00 | 0.00 | 0.00 | 68 | 1014.7 |
| 20260905142257 | 30 | 278 | 1.6 | 4.8 | 0.00 | 0.00 | 0.00 | 68 | 1014.7 |
| 20260905142156 | 30 | 277 | 1.6 | 4.8 | 0.00 | 0.00 | 0.00 | 68 | 1014.8 |
| 20260905142056 | 30 | 275 | 1.6 | 4.8 | 0.00 | 0.00 | 0.00 | 69 | 1014.7 |
| 20260905141956 | 29 | 271 | 1.6 | 3.2 | 0.00 | 0.00 | 0.00 | 69 | 1014.7 |
| 20260905141756 | 29 | 269 | 1.6 | 3.2 | 0.00 | 0.00 | 0.00 | 68 | 1014.7 |
| 20260905141656 | 29 | 264 | 1.6 | 3.2 | 0.00 | 0.00 | 0.00 | 69 | 1014.7 |
| 20260905141557 | 29 | 263 | 1.6 | 3.2 | 0.00 | 0.00 | 0.00 | 69 | 1014.7 |
| 20260905141256 | 29 | 265 | 1.6 | 3.2 | 0.00 | 0.00 | 0.00 | 70 | 1014.6 |
| 20260905141156 | 29 | 265 | 0.0 | 3.2 | 0.00 | 0.00 | 0.00 | 70 | 1014.6 |
| 20260905141056 | 29 | 266 | 0.0 | 3.2 | 0.00 | 0.00 | 0.00 | 69 | 1014.6 |
| 20260905140957 | 29 | 266 | 0.0 | 3.2 | 0.00 | 0.00 | 0.00 | 70 | 1014.6 |
| 20260905140856 | 29 | 265 | 0.0 | 3.2 | 0.00 | 0.00 | 0.00 | 70 | 1014.6 |
| 20260905140756 | 29 | 265 | 0.0 | 3.2 | 0.00 | 0.00 | 0.00 | 70 | 1014.6 |
| 20260905140656 | 28 | 266 | 0.0 | 3.2 | 0.00 | 0.00 | 0.00 | 70 | 1014.6 |
| 20260905140556 | 28 | 266 | 0.0 | 3.2 | 0.00 | 0.00 | 0.00 | 71 | 1014.6 |
| 20260905140456 | 28 | 269 | 0.0 | 3.2 | 0.00 | 0.00 | 0.00 | 72 | 1014.6 |
| 20260905140356 | 28 | 273 | 0.0 | 1.6 | 0.00 | 0.00 | 0.00 | 73 | 1014.6 |
| 20260905140256 | 28 | 273 | 0.0 | 1.6 | 0.00 | 0.00 | 0.00 | 72 | 1014.5 |
| 20260905140157 | 28 | 273 | 0.0 | 3.2 | 0.00 | 0.00 | 0.00 | 72 | 1014.6 |
| 20260905140056 | 28 | 273 | 0.0 | 3.2 | 0.00 | 0.00 | 0.00 | 72 | 1014.5 |
| 20260905135956 | 28 | 273 | 0.0 | 3.2 | 0.00 | 0.00 | 0.00 | 72 | 1014.5 |
| 20260905135756 | 28 | 273 | 0.0 | 3.2 | 0.00 | 0.00 | 0.00 | 72 | 1014.5 |
| 20260905135655 | 28 | 273 | 0.0 | 3.2 | 0.00 | 0.00 | 0.00 | 71 | 1014.5 |
| 20260905135456 | 28 | 273 | 0.0 | 3.2 | 0.00 | 0.00 | 0.00 | 72 | 1014.4 |
| 20260905135256 | 28 | 273 | 0.0 | 3.2 | 0.00 | 0.00 | 0.00 | 71 | 1014.4 |
| 20260905135057 | 28 | 273 | 0.0 | 3.2 | 0.00 | 0.00 | 0.00 | 71 | 1014.4 |
| 20260905134855 | 28 | 273 | 0.0 | 3.2 | 0.00 | 0.00 | 0.00 | 71 | 1014.4 |
| 20260905134756 | 28 | 273 | 0.0 | 3.2 | 0.00 | 0.00 | 0.00 | 71 | 1014.5 |
| 20260905134657 | 28 | 272 | 0.0 | 3.2 | 0.00 | 0.00 | 0.00 | 71 | 1014.5 |
| 20260905134456 | 28 | 272 | 0.0 | 3.2 | 0.00 | 0.00 | 0.00 | 70 | 1014.4 |
| 20260905134356 | 28 | 272 | 0.0 | 3.2 | 0.00 | 0.00 | 0.00 | 70 | 1014.4 |
| 20260905134256 | 28 | 272 | 0.0 | 3.2 | 0.00 | 0.00 | 0.00 | 70 | 1014.4 |
| 20260905134055 | 28 | 269 | 0.0 | 3.2 | 0.00 | 0.00 | 0.00 | 69 | 1014.4 |
| 20260905133955 | 28 | 267 | 0.0 | 3.2 | 0.00 | 0.00 | 0.00 | 69 | 1014.4 |
| 20260905133856 | 28 | 267 | 0.0 | 3.2 | 0.00 | 0.00 | 0.00 | 70 | 1014.4 |
| 20260905133756 | 28 | 266 | 0.0 | 3.2 | 0.00 | 0.00 | 0.00 | 70 | 1014.3 |
| 20260905133656 | 28 | 266 | 0.0 | 3.2 | 0.00 | 0.00 | 0.00 | 70 | 1014.3 |
| 20260905133556 | 28 | 266 | 0.0 | 3.2 | 0.00 | 0.00 | 0.00 | 70 | 1014.3 |
| 20260905133457 | 28 | 265 | 0.0 | 3.2 | 0.00 | 0.00 | 0.00 | 70 | 1014.3 |
| 20260905133356 | 28 | 267 | 1.6 | 3.2 | 0.00 | 0.00 | 0.00 | 70 | 1014.3 |
| 20260905133256 | 28 | 269 | 0.0 | 3.2 | 0.00 | 0.00 | 0.00 | 70 | 1014.3 |
| 20260905133155 | 28 | 271 | 0.0 | 3.2 | 0.00 | 0.00 | 0.00 | 70 | 1014.3 |
| 20260905133056 | 28 | 272 | 0.0 | 3.2 | 0.00 | 0.00 | 0.00 | 70 | 1014.3 |
| 20260905132956 | 28 | 273 | 0.0 | 3.2 | 0.00 | 0.00 | 0.00 | 71 | 1014.3 |
| 20260905132856 | 28 | 275 | 0.0 | 3.2 | 0.00 | 0.00 | 0.00 | 70 | 1014.3 |
| 20260905132756 | 28 | 276 | 0.0 | 3.2 | 0.00 | 0.00 | 0.00 | 70 | 1014.3 |
| 20260905132656 | 28 | 277 | 0.0 | 3.2 | 0.00 | 0.00 | 0.00 | 70 | 1014.3 |
| 20260905132555 | 28 | 279 | 0.0 | 3.2 | 0.00 | 0.00 | 0.00 | 70 | 1014.3 |
| 20260905132456 | 28 | 282 | 0.0 | 3.2 | 0.00 | 0.00 | 0.00 | 70 | 1014.3 |
| 20260905132356 | 28 | 284 | 0.0 | 3.2 | 0.00 | 0.00 | 0.00 | 70 | 1014.3 |
| 20260905132256 | 28 | 284 | 0.0 | 3.2 | 0.00 | 0.00 | 0.00 | 70 | 1014.3 |
| 20260905132156 | 28 | 284 | 0.0 | 3.2 | 0.00 | 0.00 | 0.00 | 70 | 1014.3 |
| 20260905132055 | 28 | 284 | 0.0 | 3.2 | 0.00 | 0.00 | 0.00 | 70 | 1014.3 |
| 20260905131857 | 28 | 284 | 0.0 | 3.2 | 0.00 | 0.00 | 0.00 | 70 | 1014.3 |
| 20260905131756 | 28 | 284 | 0.0 | 3.2 | 0.00 | 0.00 | 0.00 | 70 | 1014.3 |